Wetterdaten: Freitag, 02.06.2023
Datum Zeit Temp. Aussen Temp. o. S. Temp +5cm Feuchte Auss Luftdruck Regen Sonnenschein Regendauer Solar Windben Empfang
02.06.2023 00:00 12,6 C 11,7 C 8,3 C 80 % 1020,9 hPa 0,0 l/m 0 min 0 min 0 W/m 9,7 km/h (2 Bft) 95,74 %
02.06.2023 00:02 12,6 C 11,7 C 8,3 C 80 % 1020,8 hPa 0,0 l/m 0 min 0 min 0 W/m 9,7 km/h (2 Bft) 94,74 %
02.06.2023 00:04 12,6 C 11,7 C 8,9 C 80 % 1020,9 hPa 0,0 l/m 0 min 0 min 0 W/m 12,9 km/h (3 Bft) 95,74 %
02.06.2023 00:07 12,6 C 11,7 C 8,9 C 80 % 1020,9 hPa 0,0 l/m 0 min 0 min 0 W/m 16,1 km/h (3 Bft) 95,74 %
02.06.2023 00:08 12,5 C 11,7 C 8,9 C 80 % 1020,9 hPa 0,0 l/m 0 min 0 min 0 W/m 16,1 km/h (3 Bft) 98,96 %
02.06.2023 00:12 12,5 C 11,7 C 8,9 C 80 % 1020,8 hPa 0,0 l/m 0 min 0 min 0 W/m 6,4 km/h (2 Bft) 97,50 %
02.06.2023 00:14 12,5 C 11,7 C 8,9 C 80 % 1020,9 hPa 0,0 l/m 0 min 0 min 0 W/m 6,4 km/h (2 Bft) 95,65 %
02.06.2023 00:16 12,5 C 12,2 C 8,3 C 80 % 1021,0 hPa 0,0 l/m 0 min 0 min 0 W/m 9,7 km/h (2 Bft) 95,74 %
02.06.2023 00:18 12,5 C 12,2 C 8,9 C 80 % 1020,9 hPa 0,0 l/m 0 min 0 min 0 W/m 6,4 km/h (2 Bft) 93,62 %
02.06.2023 00:20 12,5 C 12,2 C 8,9 C 80 % 1020,9 hPa 0,0 l/m 0 min 0 min 0 W/m 12,9 km/h (3 Bft) 93,62 %
02.06.2023 00:22 12,5 C 12,2 C 8,9 C 80 % 1020,9 hPa 0,0 l/m 0 min 0 min 0 W/m 6,4 km/h (2 Bft) 93,62 %
02.06.2023 00:24 12,5 C 12,2 C 8,9 C 80 % 1020,9 hPa 0,0 l/m 0 min 0 min 0 W/m 12,9 km/h (3 Bft) 93,62 %
02.06.2023 00:26 12,6 C 12,2 C 8,9 C 80 % 1020,9 hPa 0,0 l/m 0 min 0 min 0 W/m 6,4 km/h (2 Bft) 95,74 %
02.06.2023 00:28 12,6 C 12,2 C 8,9 C 79 % 1020,9 hPa 0,0 l/m 0 min 0 min 0 W/m 6,4 km/h (2 Bft) 95,74 %
02.06.2023 00:30 12,6 C 12,2 C 8,9 C 79 % 1020,8 hPa 0,0 l/m 0 min 0 min 0 W/m 12,9 km/h (3 Bft) 97,83 %
02.06.2023 00:32 12,6 C 12,2 C 8,9 C 79 % 1020,9 hPa 0,0 l/m 0 min 0 min 0 W/m 12,9 km/h (3 Bft) 95,74 %
02.06.2023 00:34 12,6 C 12,2 C 8,9 C 79 % 1020,8 hPa 0,0 l/m 0 min 0 min 0 W/m 6,4 km/h (2 Bft) 95,74 %
02.06.2023 00:36 12,6 C 12,2 C 8,9 C 79 % 1020,8 hPa 0,0 l/m 0 min 0 min 0 W/m 6,4 km/h (2 Bft) 95,74 %
02.06.2023 00:38 12,6 C 12,2 C 8,9 C 79 % 1020,9 hPa 0,0 l/m 0 min 0 min 0 W/m 9,7 km/h (2 Bft) 95,74 %
02.06.2023 00:40 12,6 C 12,2 C 8,9 C 79 % 1020,9 hPa 0,0 l/m 0 min 0 min 0 W/m 6,4 km/h (2 Bft) 95,74 %
02.06.2023 00:42 12,6 C 12,2 C 8,9 C 79 % 1020,9 hPa 0,0 l/m 0 min 0 min 0 W/m 6,4 km/h (2 Bft) 95,65 %
02.06.2023 00:44 12,6 C 12,2 C 8,9 C 79 % 1020,9 hPa 0,0 l/m 0 min 0 min 0 W/m 12,9 km/h (3 Bft) 97,87 %
02.06.2023 00:46 12,6 C 12,2 C 8,9 C 79 % 1020,9 hPa 0,0 l/m 0 min 0 min 0 W/m 12,9 km/h (3 Bft) 95,74 %
02.06.2023 00:48 12,6 C 12,2 C 8,9 C 79 % 1020,9 hPa 0,0 l/m 0 min 0 min 0 W/m 9,7 km/h (2 Bft) 97,87 %
02.06.2023 00:50 12,7 C 12,2 C 8,9 C 79 % 1020,9 hPa 0,0 l/m 0 min 0 min 0 W/m 6,4 km/h (2 Bft) 100,00 %
02.06.2023 00:52 12,7 C 12,2 C 8,9 C 79 % 1021,0 hPa 0,0 l/m 0 min 0 min 0 W/m 12,9 km/h (3 Bft) 100,00 %
02.06.2023 00:54 12,7 C 12,2 C 8,9 C 79 % 1020,9 hPa 0,0 l/m 0 min 0 min 0 W/m 9,7 km/h (2 Bft) 100,00 %
02.06.2023 00:56 12,7 C 12,2 C 8,9 C 78 % 1021,0 hPa 0,0 l/m 0 min 0 min 0 W/m 9,7 km/h (2 Bft) 100,00 %
02.06.2023 00:58 12,8 C 12,2 C 8,9 C 78 % 1020,9 hPa 0,0 l/m 0 min 0 min 0 W/m 6,4 km/h (2 Bft) 97,87 %
02.06.2023 01:00 12,7 C 12,2 C 8,9 C 78 % 1021,0 hPa 0,0 l/m 0 min 0 min 0 W/m 6,4 km/h (2 Bft) 97,87 %
02.06.2023 01:02 12,7 C 12,2 C 8,9 C 78 % 1020,9 hPa 0,0 l/m 0 min 0 min 0 W/m 9,7 km/h (2 Bft) 97,87 %
02.06.2023 01:04 12,7 C 12,2 C 8,9 C 78 % 1020,9 hPa 0,0 l/m 0 min 0 min 0 W/m 6,4 km/h (2 Bft) 95,92 %
02.06.2023 01:06 12,8 C 12,2 C 8,9 C 78 % 1021,0 hPa 0,0 l/m 0 min 0 min 0 W/m 9,7 km/h (2 Bft) 97,87 %
02.06.2023 01:08 12,8 C 12,2 C 8,9 C 78 % 1021,0 hPa 0,0 l/m 0 min 0 min 0 W/m 12,9 km/h (3 Bft) 95,65 %
02.06.2023 01:10 12,7 C 12,2 C 8,9 C 78 % 1021,0 hPa 0,0 l/m 0 min 0 min 0 W/m 12,9 km/h (3 Bft) 97,22 %
02.06.2023 01:12 12,7 C 12,2 C 8,9 C 78 % 1021,0 hPa 0,0 l/m 0 min 0 min 0 W/m 19,3 km/h (3 Bft) 97,83 %
02.06.2023 01:14 12,7 C 12,2 C 8,9 C 78 % 1021,0 hPa 0,0 l/m 0 min 0 min 0 W/m 12,9 km/h (3 Bft) 93,62 %
02.06.2023 01:16 12,7 C 12,2 C 8,9 C 78 % 1021,0 hPa 0,0 l/m 0 min 0 min 0 W/m 9,7 km/h (2 Bft) 97,87 %
02.06.2023 01:18 12,7 C 12,2 C 8,9 C 78 % 1021,0 hPa 0,0 l/m 0 min 0 min 0 W/m 9,7 km/h (2 Bft) 97,87 %
02.06.2023 01:20 12,7 C 12,2 C 8,9 C 78 % 1021,0 hPa 0,0 l/m 0 min 0 min 0 W/m 6,4 km/h (2 Bft) 97,87 %
02.06.2023 01:22 12,7 C 12,2 C 8,9 C 78 % 1020,9 hPa 0,0 l/m 0 min 0 min 0 W/m 6,4 km/h (2 Bft) 97,87 %
02.06.2023 01:24 12,7 C 12,2 C 8,9 C 78 % 1021,0 hPa 0,0 l/m 0 min 0 min 0 W/m 12,9 km/h (3 Bft) 97,87 %
02.06.2023 01:26 12,7 C 12,2 C 8,9 C 78 % 1021,0 hPa 0,0 l/m 0 min 0 min 0 W/m 12,9 km/h (3 Bft) 95,65 %
02.06.2023 01:28 12,6 C 12,2 C 8,9 C 78 % 1021,0 hPa 0,0 l/m 0 min 0 min 0 W/m 9,7 km/h (2 Bft) 97,87 %
02.06.2023 01:30 12,6 C 12,2 C 8,3 C 78 % 1021,0 hPa 0,0 l/m 0 min 0 min 0 W/m 12,9 km/h (3 Bft) 97,87 %
02.06.2023 01:32 12,6 C 12,2 C 8,9 C 78 % 1021,0 hPa 0,0 l/m 0 min 0 min 0 W/m 12,9 km/h (3 Bft) 97,87 %
02.06.2023 01:34 12,6 C 12,2 C 8,9 C 78 % 1021,0 hPa 0,0 l/m 0 min 0 min 0 W/m 16,1 km/h (3 Bft) 97,87 %
02.06.2023 01:36 12,6 C 12,2 C 8,9 C 78 % 1020,9 hPa 0,0 l/m 0 min 0 min 0 W/m 6,4 km/h (2 Bft) 95,74 %
02.06.2023 01:38 12,6 C 12,2 C 8,9 C 78 % 1021,0 hPa 0,0 l/m 0 min 0 min 0 W/m 19,3 km/h (3 Bft) 97,83 %
02.06.2023 01:40 12,6 C 12,2 C 8,3 C 77 % 1021,0 hPa 0,0 l/m 0 min 0 min 0 W/m 16,1 km/h (3 Bft) 98,15 %
02.06.2023 01:42 12,6 C 12,2 C 8,3 C 77 % 1021,0 hPa 0,0 l/m 0 min 0 min 0 W/m 6,4 km/h (2 Bft) 95,74 %
02.06.2023 01:44 12,6 C 12,2 C 8,3 C 77 % 1021,0 hPa 0,0 l/m 0 min 0 min 0 W/m 6,4 km/h (2 Bft) 95,74 %
02.06.2023 01:46 12,6 C 12,2 C 8,3 C 77 % 1021,0 hPa 0,0 l/m 0 min 0 min 0 W/m 12,9 km/h (3 Bft) 97,87 %
02.06.2023 01:48 12,6 C 12,2 C 8,3 C 77 % 1021,0 hPa 0,0 l/m 0 min 0 min 0 W/m 6,4 km/h (2 Bft) 97,83 %
02.06.2023 01:50 12,6 C 12,2 C 8,3 C 77 % 1021,0 hPa 0,0 l/m 0 min 0 min 0 W/m 9,7 km/h (2 Bft) 100,00 %
02.06.2023 01:52 12,6 C 12,2 C 8,3 C 77 % 1020,9 hPa 0,0 l/m 0 min 0 min 0 W/m 9,7 km/h (2 Bft) 100,00 %
02.06.2023 01:54 12,6 C 12,2 C 8,3 C 77 % 1021,0 hPa 0,0 l/m 0 min 0 min 0 W/m 6,4 km/h (2 Bft) 100,00 %
02.06.2023 01:56 12,5 C 12,2 C 8,3 C 77 % 1021,0 hPa 0,0 l/m 0 min 0 min 0 W/m 9,7 km/h (2 Bft) 97,87 %
02.06.2023 01:58 12,6 C 12,2 C 8,3 C 77 % 1021,0 hPa 0,0 l/m 0 min 0 min 0 W/m 12,9 km/h (3 Bft) 97,92 %
02.06.2023 02:00 12,6 C 12,2 C 8,3 C 77 % 1021,0 hPa 0,0 l/m 0 min 0 min 0 W/m 6,4 km/h (2 Bft) 95,74 %
02.06.2023 02:02 12,6 C 12,2 C 8,3 C 77 % 1021,0 hPa 0,0 l/m 0 min 0 min 0 W/m 9,7 km/h (2 Bft) 97,83 %
02.06.2023 02:04 12,5 C 11,7 C 8,3 C 76 % 1021,0 hPa 0,0 l/m 0 min 0 min 0 W/m 9,7 km/h (2 Bft) 95,12 %
02.06.2023 02:06 12,5 C 12,2 C 8,3 C 76 % 1021,0 hPa 0,0 l/m 0 min 0 min 0 W/m 6,4 km/h (2 Bft) 96,92 %
02.06.2023 02:08 12,5 C 12,2 C 8,3 C 76 % 1021,1 hPa 0,0 l/m 0 min 0 min 0 W/m 9,7 km/h (2 Bft) 96,55 %
02.06.2023 02:10 12,5 C 12,2 C 8,3 C 76 % 1021,0 hPa 0,0 l/m 0 min 0 min 0 W/m 6,4 km/h (2 Bft) 98,21 %
02.06.2023 02:12 12,5 C 12,2 C 8,3 C 76 % 1021,0 hPa 0,0 l/m 0 min 0 min 0 W/m 6,4 km/h (2 Bft) 95,74 %
02.06.2023 02:14 12,5 C 12,2 C 8,3 C 76 % 1021,0 hPa 0,0 l/m 0 min 0 min 0 W/m 16,1 km/h (3 Bft) 95,65 %
02.06.2023 02:16 12,5 C 11,7 C 8,3 C 76 % 1021,0 hPa 0,0 l/m 0 min 0 min 0 W/m 16,1 km/h (3 Bft) 97,87 %
02.06.2023 02:18 12,5 C 11,7 C 8,3 C 76 % 1021,0 hPa 0,0 l/m 0 min 0 min 0 W/m 16,1 km/h (3 Bft) 95,74 %
02.06.2023 02:20 12,4 C 11,7 C 8,3 C 76 % 1020,9 hPa 0,0 l/m 0 min 0 min 0 W/m 9,7 km/h (2 Bft) 97,87 %
02.06.2023 02:22 12,4 C 11,7 C 8,3 C 76 % 1021,0 hPa 0,0 l/m 0 min 0 min 0 W/m 6,4 km/h (2 Bft) 97,87 %
02.06.2023 02:24 12,5 C 11,7 C 8,3 C 76 % 1021,0 hPa 0,0 l/m 0 min 0 min 0 W/m 9,7 km/h (2 Bft) 98,00 %
02.06.2023 02:26 12,4 C 11,7 C 8,3 C 76 % 1020,9 hPa 0,0 l/m 0 min 0 min 0 W/m 9,7 km/h (2 Bft) 97,83 %
02.06.2023 02:28 12,4 C 11,7 C 8,3 C 76 % 1021,0 hPa 0,0 l/m 0 min 0 min 0 W/m 9,7 km/h (2 Bft) 97,87 %
02.06.2023 02:30 12,4 C 11,7 C 8,3 C 76 % 1021,0 hPa 0,0 l/m 0 min 0 min 0 W/m 9,7 km/h (2 Bft) 100,00 %
02.06.2023 02:32 12,4 C 11,7 C 8,3 C 76 % 1021,0 hPa 0,0 l/m 0 min 0 min 0 W/m 6,4 km/h (2 Bft) 100,00 %
02.06.2023 02:34 12,4 C 11,7 C 8,3 C 76 % 1020,9 hPa 0,0 l/m 0 min 0 min 0 W/m 9,7 km/h (2 Bft) 100,00 %
02.06.2023 02:36 12,4 C 11,7 C 8,3 C 76 % 1021,0 hPa 0,0 l/m 0 min 0 min 0 W/m 16,1 km/h (3 Bft) 100,00 %
02.06.2023 02:38 12,3 C 11,7 C 8,3 C 76 % 1021,0 hPa 0,0 l/m 0 min 0 min 0 W/m 12,9 km/h (3 Bft) 97,87 %
02.06.2023 02:40 12,3 C 11,7 C 8,3 C 77 % 1021,0 hPa 0,0 l/m 0 min 0 min 0 W/m 12,9 km/h (3 Bft) 100,00 %
02.06.2023 02:42 12,3 C 11,7 C 8,3 C 77 % 1021,0 hPa 0,0 l/m 0 min 0 min 0 W/m 16,1 km/h (3 Bft) 100,00 %
02.06.2023 02:44 12,2 C 11,7 C 8,3 C 77 % 1021,0 hPa 0,0 l/m 0 min 0 min 0 W/m 12,9 km/h (3 Bft) 97,87 %
02.06.2023 02:46 12,2 C 11,7 C 8,3 C 77 % 1021,0 hPa 0,0 l/m 0 min 0 min 0 W/m 9,7 km/h (2 Bft) 97,87 %
02.06.2023 02:48 12,2 C 11,7 C 8,3 C 77 % 1021,0 hPa 0,0 l/m 0 min 0 min 0 W/m 6,4 km/h (2 Bft) 97,87 %
02.06.2023 02:50 12,2 C 11,7 C 8,3 C 77 % 1021,0 hPa 0,0 l/m 0 min 0 min 0 W/m 12,9 km/h (3 Bft) 97,87 %
02.06.2023 02:52 12,2 C 11,7 C 7,8 C 77 % 1021,1 hPa 0,0 l/m 0 min 0 min 0 W/m 12,9 km/h (3 Bft) 93,62 %
02.06.2023 02:54 12,1 C 11,7 C 7,8 C 77 % 1021,0 hPa 0,0 l/m 0 min 0 min 0 W/m 16,1 km/h (3 Bft) 97,83 %
02.06.2023 02:56 12,1 C 11,7 C 7,8 C 77 % 1021,0 hPa 0,0 l/m 0 min 0 min 0 W/m 6,4 km/h (2 Bft) 95,74 %
02.06.2023 02:58 12,1 C 11,7 C 7,8 C 77 % 1021,0 hPa 0,0 l/m 0 min 0 min 0 W/m 3,2 km/h (1 Bft) 97,87 %
02.06.2023 03:00 12,1 C 11,7 C 7,8 C 77 % 1021,0 hPa 0,0 l/m 0 min 0 min 0 W/m 12,9 km/h (3 Bft) 97,87 %
02.06.2023 03:02 12,1 C 11,7 C 7,8 C 77 % 1021,0 hPa 0,0 l/m 0 min 0 min 0 W/m 9,7 km/h (2 Bft) 97,87 %
02.06.2023 03:04 12,1 C 11,7 C 8,3 C 77 % 1021,0 hPa 0,0 l/m 0 min 0 min 0 W/m 9,7 km/h (2 Bft) 93,62 %
02.06.2023 03:06 12,1 C 11,7 C 7,8 C 77 % 1021,0 hPa 0,0 l/m 0 min 0 min 0 W/m 9,7 km/h (2 Bft) 97,96 %
02.06.2023 03:08 12,1 C 11,7 C 7,8 C 77 % 1021,0 hPa 0,0 l/m 0 min 0 min 0 W/m 12,9 km/h (3 Bft) 97,14 %
02.06.2023 03:10 12,0 C 11,7 C 7,8 C 77 % 1021,0 hPa 0,0 l/m 0 min 0 min 0 W/m 12,9 km/h (3 Bft) 98,00 %
02.06.2023 03:12 12,0 C 11,7 C 7,8 C 77 % 1021,0 hPa 0,0 l/m 0 min 0 min 0 W/m 9,7 km/h (2 Bft) 97,83 %
02.06.2023 03:14 11,9 C 11,7 C 7,8 C 77 % 1021,0 hPa 0,0 l/m 0 min 0 min 0 W/m 12,9 km/h (3 Bft) 97,87 %
02.06.2023 03:16 11,9 C 11,7 C 7,8 C 77 % 1021,0 hPa 0,0 l/m 0 min 0 min 0 W/m 6,4 km/h (2 Bft) 97,87 %
02.06.2023 03:18 11,9 C 11,1 C 7,8 C 77 % 1020,9 hPa 0,0 l/m 0 min 0 min 0 W/m 19,3 km/h (3 Bft) 97,87 %
02.06.2023 03:20 11,9 C 11,1 C 7,8 C 77 % 1021,0 hPa 0,0 l/m 0 min 0 min 0 W/m 19,3 km/h (3 Bft) 97,87 %
02.06.2023 03:22 11,9 C 11,7 C 7,8 C 77 % 1021,0 hPa 0,0 l/m 0 min 0 min 0 W/m 9,7 km/h (2 Bft) 97,87 %
02.06.2023 03:24 11,9 C 11,7 C 7,8 C 77 % 1020,9 hPa 0,0 l/m 0 min 0 min 0 W/m 6,4 km/h (2 Bft) 97,87 %
02.06.2023 03:26 11,9 C 11,7 C 7,8 C 77 % 1020,9 hPa 0,0 l/m 0 min 0 min 0 W/m 9,7 km/h (2 Bft) 97,83 %
02.06.2023 03:28 11,9 C 11,1 C 7,8 C 77 % 1020,9 hPa 0,0 l/m 0 min 0 min 0 W/m 16,1 km/h (3 Bft) 97,87 %
02.06.2023 03:30 11,9 C 11,1 C 7,8 C 77 % 1020,9 hPa 0,0 l/m 0 min 0 min 0 W/m 6,4 km/h (2 Bft) 100,00 %
02.06.2023 03:32 11,8 C 11,1 C 7,8 C 77 % 1020,9 hPa 0,0 l/m 0 min 0 min 0 W/m 12,9 km/h (3 Bft) 97,87 %
02.06.2023 03:34 11,8 C 11,1 C 7,8 C 77 % 1020,9 hPa 0,0 l/m 0 min 0 min 0 W/m 9,7 km/h (2 Bft) 100,00 %
02.06.2023 03:36 11,8 C 11,1 C 7,8 C 77 % 1020,9 hPa 0,0 l/m 0 min 0 min 0 W/m 12,9 km/h (3 Bft) 100,00 %
02.06.2023 03:38 11,8 C 11,1 C 7,8 C 77 % 1020,9 hPa 0,0 l/m 0 min 0 min 0 W/m 12,9 km/h (3 Bft) 100,00 %
02.06.2023 03:40 11,8 C 11,1 C 7,8 C 77 % 1020,9 hPa 0,0 l/m 0 min 0 min 0 W/m 16,1 km/h (3 Bft) 100,00 %
02.06.2023 03:42 11,8 C 11,1 C 7,8 C 77 % 1020,9 hPa 0,0 l/m 0 min 0 min 0 W/m 9,7 km/h (2 Bft) 95,74 %
02.06.2023 03:44 11,8 C 11,1 C 7,8 C 77 % 1021,0 hPa 0,0 l/m 0 min 0 min 0 W/m 9,7 km/h (2 Bft) 95,74 %
02.06.2023 03:46 11,7 C 11,1 C 7,8 C 77 % 1020,9 hPa 0,0 l/m 0 min 0 min 0 W/m 12,9 km/h (3 Bft) 95,74 %
02.06.2023 03:48 11,7 C 11,1 C 7,8 C 77 % 1020,9 hPa 0,0 l/m 0 min 0 min 0 W/m 16,1 km/h (3 Bft) 97,87 %
02.06.2023 03:50 11,7 C 11,1 C 7,8 C 77 % 1020,9 hPa 0,0 l/m 0 min 0 min 0 W/m 9,7 km/h (2 Bft) 95,74 %
02.06.2023 03:52 11,7 C 11,1 C 7,8 C 77 % 1020,9 hPa 0,0 l/m 0 min 0 min 0 W/m 16,1 km/h (3 Bft) 97,83 %
02.06.2023 03:54 11,7 C 11,1 C 7,8 C 77 % 1020,9 hPa 0,0 l/m 0 min 0 min 0 W/m 9,7 km/h (2 Bft) 97,87 %
02.06.2023 03:56 11,7 C 11,1 C 7,8 C 77 % 1020,9 hPa 0,0 l/m 0 min 0 min 0 W/m 3,2 km/h (1 Bft) 97,87 %
02.06.2023 03:58 11,7 C 11,1 C 7,8 C 77 % 1020,8 hPa 0,0 l/m 0 min 0 min 0 W/m 6,4 km/h (2 Bft) 95,74 %
02.06.2023 04:00 11,7 C 11,1 C 7,8 C 77 % 1020,8 hPa 0,0 l/m 0 min 0 min 0 W/m 6,4 km/h (2 Bft) 93,62 %
02.06.2023 04:02 11,7 C 11,1 C 7,8 C 77 % 1020,8 hPa 0,0 l/m 0 min 0 min 0 W/m 6,4 km/h (2 Bft) 96,77 %
02.06.2023 04:04 11,7 C 11,1 C 7,8 C 77 % 1020,9 hPa 0,0 l/m 0 min 0 min 0 W/m 6,4 km/h (2 Bft) 100,00 %
02.06.2023 04:06 11,7 C 11,1 C 7,8 C 77 % 1020,9 hPa 0,0 l/m 0 min 0 min 0 W/m 19,3 km/h (3 Bft) 97,83 %
02.06.2023 04:08 11,7 C 11,1 C 7,8 C 77 % 1020,9 hPa 0,0 l/m 0 min 0 min 0 W/m 9,7 km/h (2 Bft) 97,87 %
02.06.2023 04:10 11,7 C 11,1 C 7,8 C 77 % 1021,0 hPa 0,0 l/m 0 min 0 min 0 W/m 12,9 km/h (3 Bft) 95,74 %
02.06.2023 04:12 11,6 C 11,1 C 7,8 C 77 % 1021,0 hPa 0,0 l/m 0 min 0 min 0 W/m 12,9 km/h (3 Bft) 97,87 %
02.06.2023 04:14 11,6 C 11,1 C 7,8 C 77 % 1020,9 hPa 0,0 l/m 0 min 0 min 0 W/m 9,7 km/h (2 Bft) 97,87 %
02.06.2023 04:16 11,6 C 11,1 C 7,8 C 77 % 1021,0 hPa 0,0 l/m 0 min 0 min 0 W/m 12,9 km/h (3 Bft) 95,74 %
02.06.2023 04:18 11,6 C 11,1 C 7,8 C 76 % 1021,0 hPa 0,0 l/m 0 min 0 min 0 W/m 12,9 km/h (3 Bft) 97,87 %
02.06.2023 04:20 11,5 C 11,1 C 7,8 C 77 % 1021,0 hPa 0,0 l/m 0 min 0 min 0 W/m 9,7 km/h (2 Bft) 97,83 %
02.06.2023 04:22 11,5 C 11,1 C 7,8 C 77 % 1021,0 hPa 0,0 l/m 0 min 0 min 0 W/m 12,9 km/h (3 Bft) 97,87 %
02.06.2023 04:24 11,5 C 11,1 C 7,8 C 77 % 1020,9 hPa 0,0 l/m 0 min 0 min 0 W/m 6,4 km/h (2 Bft) 97,87 %
02.06.2023 04:26 11,5 C 11,1 C 7,8 C 77 % 1021,0 hPa 0,0 l/m 0 min 0 min 0 W/m 12,9 km/h (3 Bft) 97,87 %
02.06.2023 04:28 11,5 C 11,1 C 7,8 C 77 % 1021,0 hPa 0,0 l/m 0 min 0 min 0 W/m 9,7 km/h (2 Bft) 97,87 %
02.06.2023 04:30 11,5 C 11,1 C 7,8 C 77 % 1021,0 hPa 0,0 l/m 0 min 0 min 0 W/m 12,9 km/h (3 Bft) 97,87 %
02.06.2023 04:32 11,4 C 11,1 C 7,8 C 77 % 1021,0 hPa 0,0 l/m 0 min 0 min 0 W/m 12,9 km/h (3 Bft) 97,83 %
02.06.2023 04:34 11,4 C 10,6 C 7,2 C 77 % 1021,1 hPa 0,0 l/m 0 min 0 min 0 W/m 9,7 km/h (2 Bft) 95,74 %
02.06.2023 04:36 11,4 C 10,6 C 7,2 C 77 % 1021,1 hPa 0,0 l/m 0 min 0 min 0 W/m 6,4 km/h (2 Bft) 95,74 %
02.06.2023 04:38 11,4 C 10,6 C 7,2 C 77 % 1021,1 hPa 0,0 l/m 0 min 0 min 0 W/m 6,4 km/h (2 Bft) 97,87 %
02.06.2023 04:40 11,4 C 10,6 C 7,2 C 77 % 1021,1 hPa 0,0 l/m 0 min 0 min 0 W/m 12,9 km/h (3 Bft) 97,87 %
02.06.2023 04:42 11,3 C 10,6 C 7,2 C 77 % 1021,1 hPa 0,0 l/m 0 min 0 min 0 W/m 6,4 km/h (2 Bft) 97,87 %
02.06.2023 04:44 11,3 C 10,6 C 7,2 C 77 % 1021,1 hPa 0,0 l/m 0 min 0 min 0 W/m 16,1 km/h (3 Bft) 97,87 %
02.06.2023 04:46 11,3 C 10,6 C 7,2 C 77 % 1021,2 hPa 0,0 l/m 0 min 0 min 0 W/m 9,7 km/h (2 Bft) 95,65 %
02.06.2023 04:48 11,3 C 10,6 C 7,2 C 77 % 1021,2 hPa 0,0 l/m 0 min 0 min 0 W/m 6,4 km/h (2 Bft) 97,87 %
02.06.2023 04:50 11,3 C 11,1 C 7,2 C 77 % 1021,2 hPa 0,0 l/m 0 min 0 min 0 W/m 6,4 km/h (2 Bft) 95,74 %
02.06.2023 04:52 11,3 C 11,1 C 7,2 C 77 % 1021,2 hPa 0,0 l/m 0 min 0 min 0 W/m 12,9 km/h (3 Bft) 97,87 %
02.06.2023 04:54 11,3 C 10,6 C 7,8 C 77 % 1021,2 hPa 0,0 l/m 0 min 0 min 0 W/m 12,9 km/h (3 Bft) 97,87 %
02.06.2023 04:56 11,3 C 10,6 C 7,2 C 77 % 1021,1 hPa 0,0 l/m 0 min 0 min 0 W/m 12,9 km/h (3 Bft) 97,87 %
02.06.2023 04:58 11,3 C 10,6 C 7,2 C 77 % 1021,1 hPa 0,0 l/m 0 min 0 min 0 W/m 12,9 km/h (3 Bft) 97,87 %
02.06.2023 05:00 11,2 C 10,6 C 7,2 C 76 % 1021,1 hPa 0,0 l/m 0 min 0 min 0 W/m 12,9 km/h (3 Bft) 97,83 %
02.06.2023 05:02 11,2 C 10,6 C 7,2 C 77 % 1021,2 hPa 0,0 l/m 0 min 0 min 0 W/m 6,4 km/h (2 Bft) 97,87 %
02.06.2023 05:04 11,2 C 10,6 C 7,2 C 77 % 1021,2 hPa 0,0 l/m 0 min 0 min 0 W/m 6,4 km/h (2 Bft) 97,92 %
02.06.2023 05:06 11,2 C 10,6 C 7,2 C 77 % 1021,1 hPa 0,0 l/m 0 min 0 min 0 W/m 9,7 km/h (2 Bft) 97,87 %
02.06.2023 05:08 11,2 C 10,6 C 7,2 C 77 % 1021,1 hPa 0,0 l/m 0 min 0 min 0 W/m 6,4 km/h (2 Bft) 100,00 %
02.06.2023 05:10 11,2 C 10,6 C 7,2 C 77 % 1021,2 hPa 0,0 l/m 0 min 0 min 0 W/m 16,1 km/h (3 Bft) 95,74 %
02.06.2023 05:12 11,2 C 10,6 C 7,2 C 77 % 1021,2 hPa 0,0 l/m 0 min 0 min 0 W/m 6,4 km/h (2 Bft) 95,65 %
02.06.2023 05:14 11,2 C 10,6 C 7,2 C 77 % 1021,2 hPa 0,0 l/m 0 min 0 min 0 W/m 3,2 km/h (1 Bft) 95,24 %
02.06.2023 05:16 11,2 C 10,6 C 7,2 C 77 % 1021,2 hPa 0,0 l/m 0 min 0 min 0 W/m 9,7 km/h (2 Bft) 100,00 %
02.06.2023 05:18 11,2 C 10,6 C 7,2 C 76 % 1021,2 hPa 0,0 l/m 0 min 0 min 0 W/m 6,4 km/h (2 Bft) 100,00 %
02.06.2023 05:20 11,2 C 10,6 C 7,2 C 77 % 1021,2 hPa 0,0 l/m 0 min 0 min 0 W/m 9,7 km/h (2 Bft) 97,96 %
02.06.2023 05:22 11,2 C 10,6 C 7,2 C 77 % 1021,2 hPa 0,0 l/m 0 min 0 min 0 W/m 12,9 km/h (3 Bft) 95,74 %
02.06.2023 05:24 11,2 C 10,6 C 7,2 C 76 % 1021,2 hPa 0,0 l/m 0 min 0 min 0 W/m 12,9 km/h (3 Bft) 95,74 %
02.06.2023 05:26 11,2 C 10,6 C 7,2 C 76 % 1021,3 hPa 0,0 l/m 0 min 0 min 0 W/m 12,9 km/h (3 Bft) 95,12 %
02.06.2023 05:28 11,1 C 10,6 C 7,2 C 77 % 1021,2 hPa 0,0 l/m 0 min 0 min 0 W/m 3,2 km/h (1 Bft) 93,62 %
02.06.2023 05:30 11,1 C 10,6 C 7,2 C 77 % 1021,2 hPa 0,0 l/m 0 min 0 min 0 W/m 12,9 km/h (3 Bft) 93,62 %
02.06.2023 05:32 11,1 C 10,6 C 7,2 C 77 % 1021,2 hPa 0,0 l/m 0 min 0 min 0 W/m 16,1 km/h (3 Bft) 91,49 %
02.06.2023 05:34 11,1 C 10,6 C 7,2 C 77 % 1021,2 hPa 0,0 l/m 0 min 0 min 0 W/m 9,7 km/h (2 Bft) 95,74 %
02.06.2023 05:36 11,1 C 10,6 C 7,2 C 77 % 1021,2 hPa 0,0 l/m 0 min 0 min 0 W/m 6,4 km/h (2 Bft) 95,74 %
02.06.2023 05:38 11,1 C 10,6 C 7,2 C 77 % 1021,2 hPa 0,0 l/m 0 min 0 min 0 W/m 6,4 km/h (2 Bft) 95,65 %
02.06.2023 05:40 11,1 C 10,6 C 7,2 C 77 % 1021,3 hPa 0,0 l/m 0 min 0 min 0 W/m 6,4 km/h (2 Bft) 95,74 %
02.06.2023 05:42 11,1 C 10,6 C 7,2 C 77 % 1021,3 hPa 0,0 l/m 0 min 0 min 1 W/m 6,4 km/h (2 Bft) 95,74 %
02.06.2023 05:44 11,1 C 10,6 C 7,2 C 76 % 1021,3 hPa 0,0 l/m 0 min 0 min 5 W/m 9,7 km/h (2 Bft) 93,62 %
02.06.2023 05:46 11,1 C 10,6 C 7,2 C 76 % 1021,2 hPa 0,0 l/m 0 min 0 min 5 W/m 9,7 km/h (2 Bft) 95,74 %
02.06.2023 05:48 11,1 C 10,6 C 7,2 C 76 % 1021,3 hPa 0,0 l/m 0 min 0 min 6 W/m 9,7 km/h (2 Bft) 95,74 %
02.06.2023 05:50 11,1 C 10,6 C 7,2 C 76 % 1021,3 hPa 0,0 l/m 0 min 0 min 7 W/m 16,1 km/h (3 Bft) 95,65 %
02.06.2023 05:52 11,0 C 10,6 C 7,2 C 75 % 1021,3 hPa 0,0 l/m 0 min 0 min 8 W/m 16,1 km/h (3 Bft) 95,74 %
02.06.2023 05:54 11,0 C 10,6 C 7,2 C 75 % 1021,4 hPa 0,0 l/m 0 min 0 min 9 W/m 12,9 km/h (3 Bft) 91,49 %
02.06.2023 05:56 10,9 C 10,6 C 7,2 C 75 % 1021,3 hPa 0,0 l/m 0 min 0 min 10 W/m 12,9 km/h (3 Bft) 95,74 %
02.06.2023 05:58 10,9 C 10,0 C 7,2 C 75 % 1021,3 hPa 0,0 l/m 0 min 0 min 11 W/m 12,9 km/h (3 Bft) 97,87 %
02.06.2023 06:00 10,9 C 10,0 C 7,2 C 75 % 1021,3 hPa 0,0 l/m 0 min 0 min 11 W/m 6,4 km/h (2 Bft) 97,87 %
02.06.2023 06:02 10,9 C 10,0 C 7,2 C 75 % 1021,3 hPa 0,0 l/m 0 min 0 min 11 W/m 6,4 km/h (2 Bft) 97,87 %
02.06.2023 06:04 10,8 C 10,0 C 7,2 C 75 % 1021,4 hPa 0,0 l/m 0 min 0 min 12 W/m 6,4 km/h (2 Bft) 100,00 %
02.06.2023 06:07 10,9 C 10,6 C 7,2 C 76 % 1021,4 hPa 0,0 l/m 0 min 0 min 12 W/m 6,4 km/h (2 Bft) 100,00 %
02.06.2023 06:08 10,9 C 10,6 C 7,2 C 76 % 1021,4 hPa 0,0 l/m 0 min 0 min 12 W/m 6,4 km/h (2 Bft) 100,00 %
02.06.2023 06:12 10,9 C 10,6 C 7,2 C 76 % 1021,4 hPa 0,0 l/m 0 min 0 min 14 W/m 6,4 km/h (2 Bft) 98,18 %
02.06.2023 06:14 10,9 C 10,6 C 7,2 C 76 % 1021,4 hPa 0,0 l/m 0 min 0 min 16 W/m 12,9 km/h (3 Bft) 97,83 %
02.06.2023 06:16 10,9 C 10,6 C 7,2 C 76 % 1021,4 hPa 0,0 l/m 0 min 0 min 16 W/m 6,4 km/h (2 Bft) 100,00 %
02.06.2023 06:18 10,9 C 10,6 C 7,2 C 76 % 1021,4 hPa 0,0 l/m 0 min 0 min 16 W/m 6,4 km/h (2 Bft) 100,00 %
02.06.2023 06:20 10,9 C 10,6 C 7,2 C 76 % 1021,5 hPa 0,0 l/m 0 min 0 min 18 W/m 6,4 km/h (2 Bft) 100,00 %
02.06.2023 06:22 10,9 C 10,6 C 7,2 C 76 % 1021,4 hPa 0,0 l/m 0 min 0 min 18 W/m 9,7 km/h (2 Bft) 100,00 %
02.06.2023 06:24 10,9 C 10,6 C 7,2 C 76 % 1021,5 hPa 0,0 l/m 0 min 0 min 18 W/m 12,9 km/h (3 Bft) 100,00 %
02.06.2023 06:26 10,9 C 10,6 C 7,2 C 76 % 1021,5 hPa 0,0 l/m 0 min 0 min 18 W/m 12,9 km/h (3 Bft) 100,00 %
02.06.2023 06:28 10,9 C 10,6 C 7,2 C 76 % 1021,5 hPa 0,0 l/m 0 min 0 min 19 W/m 16,1 km/h (3 Bft) 100,00 %
02.06.2023 06:30 10,9 C 10,6 C 7,2 C 76 % 1021,5 hPa 0,0 l/m 0 min 0 min 19 W/m 6,4 km/h (2 Bft) 100,00 %
02.06.2023 06:32 10,9 C 10,6 C 7,2 C 76 % 1021,5 hPa 0,0 l/m 0 min 0 min 19 W/m 6,4 km/h (2 Bft) 100,00 %
02.06.2023 06:34 10,9 C 10,6 C 7,2 C 76 % 1021,5 hPa 0,0 l/m 0 min 0 min 21 W/m 6,4 km/h (2 Bft) 100,00 %
02.06.2023 06:36 10,9 C 10,6 C 7,2 C 76 % 1021,5 hPa 0,0 l/m 0 min 0 min 21 W/m 6,4 km/h (2 Bft) 100,00 %
02.06.2023 06:38 10,9 C 10,6 C 7,2 C 76 % 1021,5 hPa 0,0 l/m 0 min 0 min 23 W/m 6,4 km/h (2 Bft) 100,00 %
02.06.2023 06:40 10,9 C 10,6 C 7,2 C 76 % 1021,5 hPa 0,0 l/m 0 min 0 min 24 W/m 6,4 km/h (2 Bft) 97,87 %
02.06.2023 06:42 10,9 C 10,6 C 7,2 C 76 % 1021,5 hPa 0,0 l/m 0 min 0 min 25 W/m 9,7 km/h (2 Bft) 100,00 %
02.06.2023 06:44 10,9 C 10,6 C 7,2 C 77 % 1021,5 hPa 0,0 l/m 0 min 0 min 26 W/m 12,9 km/h (3 Bft) 100,00 %
02.06.2023 06:46 10,9 C 10,6 C 7,2 C 76 % 1021,5 hPa 0,0 l/m 0 min 0 min 26 W/m 6,4 km/h (2 Bft) 100,00 %
02.06.2023 06:48 11,0 C 10,6 C 7,2 C 77 % 1021,5 hPa 0,0 l/m 0 min 0 min 26 W/m 6,4 km/h (2 Bft) 100,00 %
02.06.2023 06:50 11,0 C 10,6 C 7,2 C 77 % 1021,5 hPa 0,0 l/m 0 min 0 min 26 W/m 6,4 km/h (2 Bft) 100,00 %
02.06.2023 06:52 11,0 C 10,6 C 7,2 C 77 % 1021,5 hPa 0,0 l/m 0 min 0 min 28 W/m 6,4 km/h (2 Bft) 100,00 %
02.06.2023 06:54 11,1 C 10,6 C 7,2 C 77 % 1021,5 hPa 0,0 l/m 0 min 0 min 28 W/m 6,4 km/h (2 Bft) 100,00 %
02.06.2023 06:56 11,1 C 10,6 C 7,2 C 77 % 1021,5 hPa 0,0 l/m 0 min 0 min 28 W/m 6,4 km/h (2 Bft) 97,87 %
02.06.2023 06:58 11,1 C 10,6 C 7,2 C 77 % 1021,5 hPa 0,0 l/m 0 min 0 min 29 W/m 6,4 km/h (2 Bft) 100,00 %
02.06.2023 07:00 11,1 C 10,6 C 7,2 C 77 % 1021,5 hPa 0,0 l/m 0 min 0 min 30 W/m 9,7 km/h (2 Bft) 100,00 %
02.06.2023 07:02 11,1 C 11,1 C 7,2 C 76 % 1021,6 hPa 0,0 l/m 0 min 0 min 31 W/m 12,9 km/h (3 Bft) 95,74 %
02.06.2023 07:04 11,1 C 11,1 C 7,2 C 76 % 1021,6 hPa 0,0 l/m 0 min 0 min 33 W/m 9,7 km/h (2 Bft) 100,00 %
02.06.2023 07:06 11,1 C 10,6 C 7,2 C 76 % 1021,5 hPa 0,0 l/m 0 min 0 min 34 W/m 9,7 km/h (2 Bft) 100,00 %
02.06.2023 07:08 11,1 C 10,6 C 7,2 C 76 % 1021,5 hPa 0,0 l/m 0 min 0 min 36 W/m 6,4 km/h (2 Bft) 97,87 %
02.06.2023 07:10 11,1 C 10,6 C 7,2 C 76 % 1021,5 hPa 0,0 l/m 0 min 0 min 37 W/m 6,4 km/h (2 Bft) 100,00 %
02.06.2023 07:12 11,1 C 10,6 C 7,2 C 76 % 1021,5 hPa 0,0 l/m 0 min 0 min 37 W/m 6,4 km/h (2 Bft) 97,83 %
02.06.2023 07:14 11,1 C 11,1 C 7,2 C 76 % 1021,5 hPa 0,0 l/m 0 min 0 min 38 W/m 6,4 km/h (2 Bft) 97,87 %
02.06.2023 07:16 11,1 C 10,6 C 7,2 C 76 % 1021,6 hPa 0,0 l/m 0 min 0 min 39 W/m 12,9 km/h (3 Bft) 95,74 %
02.06.2023 07:18 11,2 C 10,6 C 7,2 C 76 % 1021,5 hPa 0,0 l/m 0 min 0 min 40 W/m 3,2 km/h (1 Bft) 95,74 %
02.06.2023 07:20 11,1 C 10,6 C 7,2 C 76 % 1021,5 hPa 0,0 l/m 0 min 0 min 40 W/m 9,7 km/h (2 Bft) 95,74 %
02.06.2023 07:22 11,1 C 11,1 C 7,2 C 76 % 1021,5 hPa 0,0 l/m 0 min 0 min 43 W/m 12,9 km/h (3 Bft) 97,87 %
02.06.2023 07:24 11,2 C 11,1 C 7,2 C 76 % 1021,6 hPa 0,0 l/m 0 min 0 min 45 W/m 9,7 km/h (2 Bft) 93,62 %
02.06.2023 07:26 11,2 C 11,1 C 7,2 C 76 % 1021,5 hPa 0,0 l/m 0 min 0 min 46 W/m 12,9 km/h (3 Bft) 93,48 %
02.06.2023 07:28 11,2 C 11,1 C 7,2 C 76 % 1021,6 hPa 0,0 l/m 0 min 0 min 47 W/m 3,2 km/h (1 Bft) 95,74 %
02.06.2023 07:30 11,2 C 10,6 C 7,2 C 76 % 1021,5 hPa 0,0 l/m 0 min 0 min 46 W/m 9,7 km/h (2 Bft) 95,74 %
02.06.2023 07:32 11,2 C 10,6 C 7,2 C 76 % 1021,6 hPa 0,0 l/m 0 min 0 min 46 W/m 6,4 km/h (2 Bft) 93,62 %
02.06.2023 07:34 11,2 C 11,1 C 7,8 C 76 % 1021,5 hPa 0,0 l/m 0 min 0 min 46 W/m 6,4 km/h (2 Bft) 95,74 %
02.06.2023 07:36 11,2 C 11,1 C 7,8 C 77 % 1021,5 hPa 0,0 l/m 0 min 0 min 47 W/m 6,4 km/h (2 Bft) 95,74 %
02.06.2023 07:38 11,2 C 10,6 C 7,2 C 76 % 1021,5 hPa 0,0 l/m 0 min 0 min 49 W/m 9,7 km/h (2 Bft) 93,62 %
02.06.2023 07:40 11,2 C 10,6 C 7,2 C 76 % 1021,6 hPa 0,0 l/m 0 min 0 min 50 W/m 12,9 km/h (3 Bft) 95,65 %
02.06.2023 07:42 11,2 C 10,6 C 7,2 C 76 % 1021,6 hPa 0,0 l/m 0 min 0 min 55 W/m 9,7 km/h (2 Bft) 89,36 %
02.06.2023 07:44 11,2 C 10,6 C 7,2 C 76 % 1021,6 hPa 0,0 l/m 0 min 0 min 58 W/m 6,4 km/h (2 Bft) 97,87 %
02.06.2023 07:46 11,2 C 10,6 C 7,2 C 76 % 1021,5 hPa 0,0 l/m 0 min 0 min 61 W/m 6,4 km/h (2 Bft) 97,87 %
02.06.2023 07:48 11,2 C 10,6 C 7,2 C 76 % 1021,6 hPa 0,0 l/m 0 min 0 min 62 W/m 16,1 km/h (3 Bft) 95,74 %
02.06.2023 07:50 11,2 C 11,1 C 7,2 C 76 % 1021,5 hPa 0,0 l/m 0 min 0 min 63 W/m 6,4 km/h (2 Bft) 97,87 %
02.06.2023 07:52 11,2 C 11,1 C 7,2 C 77 % 1021,6 hPa 0,0 l/m 0 min 0 min 67 W/m 12,9 km/h (3 Bft) 93,62 %
02.06.2023 07:54 11,2 C 11,1 C 7,2 C 77 % 1021,6 hPa 0,0 l/m 0 min 0 min 69 W/m 9,7 km/h (2 Bft) 97,14 %
02.06.2023 07:56 11,2 C 11,1 C 7,2 C 76 % 1021,6 hPa 0,0 l/m 0 min 0 min 70 W/m 9,7 km/h (2 Bft) 95,74 %
02.06.2023 07:58 11,2 C 11,1 C 7,2 C 76 % 1021,6 hPa 0,0 l/m 0 min 0 min 74 W/m 6,4 km/h (2 Bft) 95,65 %
02.06.2023 08:00 11,3 C 11,1 C 7,8 C 77 % 1021,6 hPa 0,0 l/m 0 min 0 min 77 W/m 6,4 km/h (2 Bft) 93,62 %
02.06.2023 08:02 11,3 C 11,1 C 7,8 C 76 % 1021,6 hPa 0,0 l/m 0 min 0 min 80 W/m 16,1 km/h (3 Bft) 91,49 %
02.06.2023 08:04 11,3 C 11,1 C 7,8 C 76 % 1021,6 hPa 0,0 l/m 0 min 0 min 82 W/m 6,4 km/h (2 Bft) 93,75 %
02.06.2023 08:06 11,3 C 11,1 C 7,8 C 76 % 1021,6 hPa 0,0 l/m 0 min 0 min 84 W/m 19,3 km/h (3 Bft) 94,83 %
02.06.2023 08:08 11,3 C 11,1 C 7,8 C 76 % 1021,6 hPa 0,0 l/m 0 min 0 min 87 W/m 6,4 km/h (2 Bft) 94,44 %
02.06.2023 08:10 11,3 C 11,1 C 7,8 C 76 % 1021,6 hPa 0,0 l/m 0 min 0 min 92 W/m 12,9 km/h (3 Bft) 95,65 %
02.06.2023 08:12 11,3 C 11,1 C 7,8 C 76 % 1021,6 hPa 0,0 l/m 0 min 0 min 96 W/m 12,9 km/h (3 Bft) 93,62 %
02.06.2023 08:14 11,3 C 11,1 C 7,8 C 76 % 1021,6 hPa 0,0 l/m 0 min 0 min 99 W/m 12,9 km/h (3 Bft) 97,87 %
02.06.2023 08:16 11,3 C 11,1 C 7,8 C 76 % 1021,6 hPa 0,0 l/m 0 min 0 min 100 W/m 3,2 km/h (1 Bft) 97,87 %
02.06.2023 08:18 11,4 C 11,7 C 7,8 C 76 % 1021,6 hPa 0,0 l/m 0 min 0 min 103 W/m 12,9 km/h (3 Bft) 97,87 %
02.06.2023 08:20 11,4 C 11,7 C 7,8 C 76 % 1021,7 hPa 0,0 l/m 0 min 0 min 103 W/m 9,7 km/h (2 Bft) 97,87 %
02.06.2023 08:22 11,4 C 11,7 C 7,8 C 76 % 1021,7 hPa 0,0 l/m 0 min 0 min 99 W/m 6,4 km/h (2 Bft) 95,74 %
02.06.2023 08:24 11,4 C 11,7 C 7,8 C 76 % 1021,7 hPa 0,0 l/m 0 min 0 min 101 W/m 9,7 km/h (2 Bft) 97,83 %
02.06.2023 08:26 11,4 C 11,7 C 7,8 C 75 % 1021,7 hPa 0,0 l/m 0 min 0 min 104 W/m 12,9 km/h (3 Bft) 97,87 %
02.06.2023 08:28 11,4 C 11,7 C 7,8 C 75 % 1021,7 hPa 0,0 l/m 0 min 0 min 104 W/m 6,4 km/h (2 Bft) 97,87 %
02.06.2023 08:30 11,4 C 11,7 C 7,8 C 75 % 1021,7 hPa 0,0 l/m 0 min 0 min 105 W/m 6,4 km/h (2 Bft) 97,87 %
02.06.2023 08:32 11,4 C 11,1 C 7,8 C 75 % 1021,7 hPa 0,0 l/m 0 min 0 min 106 W/m 16,1 km/h (3 Bft) 95,74 %
02.06.2023 08:34 11,4 C 11,1 C 7,8 C 75 % 1021,7 hPa 0,0 l/m 0 min 0 min 110 W/m 6,4 km/h (2 Bft) 95,74 %
02.06.2023 08:36 11,4 C 11,7 C 7,8 C 75 % 1021,7 hPa 0,0 l/m 0 min 0 min 110 W/m 3,2 km/h (1 Bft) 95,74 %
02.06.2023 08:38 11,4 C 11,7 C 7,8 C 75 % 1021,7 hPa 0,0 l/m 0 min 0 min 111 W/m 3,2 km/h (1 Bft) 97,83 %
02.06.2023 08:40 11,5 C 11,7 C 7,8 C 75 % 1021,6 hPa 0,0 l/m 0 min 0 min 114 W/m 6,4 km/h (2 Bft) 97,87 %
02.06.2023 08:42 11,5 C 11,7 C 7,8 C 75 % 1021,7 hPa 0,0 l/m 0 min 0 min 114 W/m 9,7 km/h (2 Bft) 100,00 %
02.06.2023 08:44 11,6 C 11,7 C 7,8 C 75 % 1021,8 hPa 0,0 l/m 0 min 0 min 117 W/m 12,9 km/h (3 Bft) 100,00 %
02.06.2023 08:46 11,6 C 11,7 C 7,8 C 75 % 1021,7 hPa 0,0 l/m 0 min 0 min 119 W/m 9,7 km/h (2 Bft) 100,00 %
02.06.2023 08:48 11,6 C 11,7 C 7,8 C 75 % 1021,7 hPa 0,0 l/m 0 min 0 min 123 W/m 12,9 km/h (3 Bft) 100,00 %
02.06.2023 08:50 11,6 C 11,7 C 7,8 C 75 % 1021,7 hPa 0,0 l/m 0 min 0 min 128 W/m 9,7 km/h (2 Bft) 100,00 %
02.06.2023 08:52 11,6 C 11,7 C 7,8 C 75 % 1021,8 hPa 0,0 l/m 0 min 0 min 128 W/m 6,4 km/h (2 Bft) 97,83 %
02.06.2023 08:54 11,6 C 11,7 C 7,8 C 74 % 1021,8 hPa 0,0 l/m 0 min 0 min 127 W/m 3,2 km/h (1 Bft) 100,00 %
02.06.2023 08:56 11,6 C 11,7 C 7,8 C 75 % 1021,8 hPa 0,0 l/m 0 min 0 min 127 W/m 6,4 km/h (2 Bft) 100,00 %
02.06.2023 08:58 11,6 C 11,7 C 7,8 C 75 % 1021,8 hPa 0,0 l/m 0 min 0 min 129 W/m 9,7 km/h (2 Bft) 100,00 %
02.06.2023 09:00 11,7 C 11,7 C 7,8 C 75 % 1021,9 hPa 0,0 l/m 0 min 0 min 132 W/m 12,9 km/h (3 Bft) 97,87 %
02.06.2023 09:02 11,7 C 11,7 C 7,8 C 74 % 1021,9 hPa 0,0 l/m 0 min 0 min 129 W/m 12,9 km/h (3 Bft) 100,00 %
02.06.2023 09:04 11,7 C 11,7 C 7,8 C 74 % 1021,9 hPa 0,0 l/m 0 min 0 min 127 W/m 9,7 km/h (2 Bft) 100,00 %
02.06.2023 09:06 11,7 C 11,7 C 7,8 C 74 % 1021,9 hPa 0,0 l/m 0 min 0 min 129 W/m 6,4 km/h (2 Bft) 98,33 %
02.06.2023 09:08 11,7 C 11,7 C 7,8 C 75 % 1021,9 hPa 0,0 l/m 0 min 0 min 133 W/m 6,4 km/h (2 Bft) 94,29 %
02.06.2023 09:10 11,7 C 11,7 C 7,8 C 75 % 1021,8 hPa 0,0 l/m 0 min 0 min 134 W/m 3,2 km/h (1 Bft) 97,87 %
02.06.2023 09:12 11,7 C 11,7 C 7,8 C 74 % 1021,9 hPa 0,0 l/m 0 min 0 min 137 W/m 9,7 km/h (2 Bft) 97,87 %
02.06.2023 09:14 11,7 C 12,2 C 7,8 C 74 % 1021,9 hPa 0,0 l/m 0 min 0 min 140 W/m 6,4 km/h (2 Bft) 97,83 %
02.06.2023 09:16 11,7 C 11,7 C 7,8 C 74 % 1021,9 hPa 0,0 l/m 0 min 0 min 140 W/m 6,4 km/h (2 Bft) 95,74 %
02.06.2023 09:18 11,7 C 11,7 C 7,8 C 74 % 1021,9 hPa 0,0 l/m 0 min 0 min 136 W/m 16,1 km/h (3 Bft) 97,87 %
02.06.2023 09:20 11,7 C 11,7 C 7,8 C 75 % 1021,9 hPa 0,0 l/m 0 min 0 min 135 W/m 9,7 km/h (2 Bft) 95,74 %
02.06.2023 09:22 11,8 C 12,2 C 7,8 C 74 % 1021,9 hPa 0,0 l/m 0 min 0 min 136 W/m 6,4 km/h (2 Bft) 95,74 %
02.06.2023 09:24 11,7 C 11,7 C 7,8 C 74 % 1021,8 hPa 0,0 l/m 0 min 0 min 141 W/m 12,9 km/h (3 Bft) 97,87 %
02.06.2023 09:26 11,7 C 11,7 C 7,8 C 75 % 1021,9 hPa 0,0 l/m 0 min 0 min 146 W/m 19,3 km/h (3 Bft) 97,87 %
02.06.2023 09:28 11,7 C 11,7 C 7,8 C 74 % 1021,9 hPa 0,0 l/m 0 min 0 min 149 W/m 12,9 km/h (3 Bft) 97,83 %
02.06.2023 09:30 11,7 C 12,2 C 8,3 C 75 % 1021,9 hPa 0,0 l/m 0 min 0 min 149 W/m 9,7 km/h (2 Bft) 97,87 %
02.06.2023 09:32 11,8 C 12,2 C 8,3 C 75 % 1021,9 hPa 0,0 l/m 0 min 0 min 148 W/m 6,4 km/h (2 Bft) 97,87 %
02.06.2023 09:34 11,8 C 11,7 C 8,3 C 75 % 1021,9 hPa 0,0 l/m 0 min 0 min 149 W/m 9,7 km/h (2 Bft) 97,87 %
02.06.2023 09:36 11,8 C 11,7 C 8,3 C 74 % 1021,9 hPa 0,0 l/m 0 min 0 min 152 W/m 6,4 km/h (2 Bft) 95,74 %
02.06.2023 09:38 11,8 C 12,2 C 8,3 C 74 % 1021,9 hPa 0,0 l/m 0 min 0 min 155 W/m 9,7 km/h (2 Bft) 97,87 %
02.06.2023 09:40 11,8 C 11,7 C 8,3 C 75 % 1021,9 hPa 0,0 l/m 0 min 0 min 157 W/m 6,4 km/h (2 Bft) 100,00 %
02.06.2023 09:42 11,8 C 11,7 C 8,3 C 74 % 1021,9 hPa 0,0 l/m 0 min 0 min 161 W/m 12,9 km/h (3 Bft) 100,00 %
02.06.2023 09:44 11,8 C 12,2 C 8,3 C 75 % 1021,9 hPa 0,0 l/m 0 min 0 min 164 W/m 9,7 km/h (2 Bft) 100,00 %
02.06.2023 09:46 11,9 C 12,2 C 8,3 C 74 % 1021,9 hPa 0,0 l/m 0 min 0 min 176 W/m 9,7 km/h (2 Bft) 100,00 %
02.06.2023 09:48 11,9 C 12,2 C 8,3 C 74 % 1021,8 hPa 0,0 l/m 0 min 0 min 188 W/m 12,9 km/h (3 Bft) 100,00 %
02.06.2023 09:50 11,9 C 12,2 C 8,3 C 74 % 1021,8 hPa 0,0 l/m 0 min 0 min 199 W/m 9,7 km/h (2 Bft) 100,00 %
02.06.2023 09:52 11,9 C 12,2 C 8,3 C 74 % 1021,8 hPa 0,0 l/m 0 min 0 min 206 W/m 9,7 km/h (2 Bft) 100,00 %
02.06.2023 09:54 12,0 C 12,2 C 8,3 C 74 % 1021,9 hPa 0,0 l/m 0 min 0 min 207 W/m 19,3 km/h (3 Bft) 100,00 %
02.06.2023 09:56 12,1 C 12,8 C 8,3 C 73 % 1021,8 hPa 0,0 l/m 0 min 0 min 208 W/m 12,9 km/h (3 Bft) 100,00 %
02.06.2023 09:58 12,1 C 12,8 C 8,3 C 73 % 1021,9 hPa 0,0 l/m 0 min 0 min 218 W/m 16,1 km/h (3 Bft) 100,00 %
02.06.2023 10:00 12,1 C 12,8 C 8,3 C 73 % 1021,8 hPa 0,0 l/m 0 min 0 min 220 W/m 6,4 km/h (2 Bft) 100,00 %
02.06.2023 10:02 12,1 C 12,8 C 8,9 C 73 % 1021,9 hPa 0,0 l/m 0 min 0 min 230 W/m 9,7 km/h (2 Bft) 100,00 %
02.06.2023 10:04 12,2 C 12,8 C 8,9 C 73 % 1021,9 hPa 0,0 l/m 0 min 0 min 241 W/m 6,4 km/h (2 Bft) 100,00 %
02.06.2023 10:06 12,2 C 13,3 C 8,9 C 73 % 1021,9 hPa 0,0 l/m 0 min 0 min 252 W/m 6,4 km/h (2 Bft) 100,00 %
02.06.2023 10:08 12,3 C 12,8 C 8,9 C 73 % 1021,9 hPa 0,0 l/m 0 min 0 min 253 W/m 16,1 km/h (3 Bft) 97,14 %
02.06.2023 10:10 12,3 C 12,8 C 8,9 C 72 % 1021,9 hPa 0,0 l/m 0 min 0 min 256 W/m 9,7 km/h (2 Bft) 100,00 %
02.06.2023 10:12 12,3 C 12,8 C 8,9 C 72 % 1022,0 hPa 0,0 l/m 0 min 0 min 254 W/m 12,9 km/h (3 Bft) 97,87 %
02.06.2023 10:14 12,3 C 13,3 C 8,9 C 72 % 1022,0 hPa 0,0 l/m 0 min 0 min 247 W/m 3,2 km/h (1 Bft) 100,00 %
02.06.2023 10:16 12,4 C 13,3 C 8,9 C 72 % 1021,9 hPa 0,0 l/m 0 min 0 min 242 W/m 9,7 km/h (2 Bft) 97,87 %
02.06.2023 10:18 12,4 C 13,3 C 8,9 C 72 % 1022,0 hPa 0,0 l/m 0 min 0 min 242 W/m 19,3 km/h (3 Bft) 95,74 %
02.06.2023 10:20 12,4 C 12,8 C 8,9 C 72 % 1021,9 hPa 0,0 l/m 0 min 0 min 242 W/m 12,9 km/h (3 Bft) 95,74 %
02.06.2023 10:22 12,4 C 12,8 C 8,9 C 71 % 1022,0 hPa 0,0 l/m 0 min 0 min 238 W/m 12,9 km/h (3 Bft) 95,65 %
02.06.2023 10:24 12,4 C 12,8 C 8,9 C 72 % 1022,0 hPa 0,0 l/m 0 min 0 min 236 W/m 9,7 km/h (2 Bft) 95,74 %
02.06.2023 10:26 12,4 C 12,8 C 8,9 C 71 % 1022,0 hPa 0,0 l/m 0 min 0 min 241 W/m 6,4 km/h (2 Bft) 95,74 %
02.06.2023 10:28 12,4 C 13,3 C 8,9 C 72 % 1022,0 hPa 0,0 l/m 0 min 0 min 246 W/m 9,7 km/h (2 Bft) 95,74 %
02.06.2023 10:30 12,5 C 13,3 C 8,9 C 72 % 1022,0 hPa 0,0 l/m 0 min 0 min 246 W/m 12,9 km/h (3 Bft) 95,74 %
02.06.2023 10:32 12,5 C 13,3 C 8,9 C 71 % 1021,9 hPa 0,0 l/m 0 min 0 min 257 W/m 12,9 km/h (3 Bft) 97,87 %
02.06.2023 10:34 12,5 C 13,3 C 8,9 C 71 % 1021,9 hPa 0,0 l/m 0 min 0 min 265 W/m 12,9 km/h (3 Bft) 97,87 %
02.06.2023 10:36 12,6 C 13,3 C 9,4 C 71 % 1021,9 hPa 0,0 l/m 0 min 0 min 268 W/m 6,4 km/h (2 Bft) 97,83 %
02.06.2023 10:38 12,6 C 13,9 C 9,4 C 71 % 1022,0 hPa 0,0 l/m 0 min 0 min 276 W/m 6,4 km/h (2 Bft) 93,62 %
02.06.2023 10:40 12,7 C 13,9 C 9,4 C 71 % 1022,0 hPa 0,0 l/m 0 min 0 min 288 W/m 6,4 km/h (2 Bft) 97,87 %
02.06.2023 10:42 12,7 C 13,3 C 9,4 C 71 % 1022,0 hPa 0,0 l/m 0 min 0 min 295 W/m 22,5 km/h (4 Bft) 97,87 %
02.06.2023 10:44 12,7 C 13,3 C 9,4 C 71 % 1022,0 hPa 0,0 l/m 0 min 0 min 296 W/m 12,9 km/h (3 Bft) 97,87 %
02.06.2023 10:46 12,8 C 13,9 C 9,4 C 70 % 1022,0 hPa 0,0 l/m 0 min 0 min 299 W/m 9,7 km/h (2 Bft) 95,74 %
02.06.2023 10:48 12,8 C 13,9 C 9,4 C 71 % 1022,0 hPa 0,0 l/m 0 min 0 min 307 W/m 6,4 km/h (2 Bft) 97,83 %
02.06.2023 10:50 12,8 C 13,3 C 9,4 C 70 % 1022,0 hPa 0,0 l/m 0 min 0 min 325 W/m 12,9 km/h (3 Bft) 97,87 %
02.06.2023 10:52 12,8 C 13,9 C 9,4 C 70 % 1022,0 hPa 0,0 l/m 0 min 0 min 328 W/m 12,9 km/h (3 Bft) 97,87 %
02.06.2023 10:54 12,8 C 13,9 C 9,4 C 70 % 1022,0 hPa 0,0 l/m 0 min 0 min 318 W/m 19,3 km/h (3 Bft) 95,74 %
02.06.2023 10:56 12,9 C 13,9 C 9,4 C 70 % 1022,0 hPa 0,0 l/m 0 min 0 min 316 W/m 12,9 km/h (3 Bft) 93,62 %
02.06.2023 10:58 12,9 C 13,9 C 9,4 C 70 % 1022,0 hPa 0,0 l/m 0 min 0 min 337 W/m 6,4 km/h (2 Bft) 97,87 %
02.06.2023 11:00 12,9 C 13,9 C 9,4 C 70 % 1022,0 hPa 0,0 l/m 0 min 0 min 357 W/m 19,3 km/h (3 Bft) 97,83 %
02.06.2023 11:02 12,9 C 14,4 C 10,0 C 70 % 1021,9 hPa 0,0 l/m 2 min 0 min 431 W/m 9,7 km/h (2 Bft) 95,74 %
02.06.2023 11:04 13,1 C 15,0 C 10,0 C 70 % 1021,9 hPa 0,0 l/m 0 min 0 min 379 W/m 16,1 km/h (3 Bft) 95,74 %
02.06.2023 11:06 13,2 C 15,0 C 10,0 C 70 % 1022,0 hPa 0,0 l/m 0 min 0 min 347 W/m 6,4 km/h (2 Bft) 97,87 %
02.06.2023 11:08 13,3 C 15,0 C 10,0 C 69 % 1022,0 hPa 0,0 l/m 0 min 0 min 330 W/m 6,4 km/h (2 Bft) 95,74 %
02.06.2023 11:10 13,3 C 15,0 C 10,0 C 69 % 1022,0 hPa 0,0 l/m 0 min 0 min 341 W/m 9,7 km/h (2 Bft) 91,49 %
02.06.2023 11:12 13,4 C 15,0 C 10,6 C 69 % 1021,9 hPa 0,0 l/m 0 min 0 min 393 W/m 9,7 km/h (2 Bft) 93,62 %
02.06.2023 11:14 13,6 C 15,6 C 10,6 C 68 % 1021,9 hPa 0,0 l/m 2 min 0 min 463 W/m 12,9 km/h (3 Bft) 93,62 %
02.06.2023 11:16 13,6 C 15,6 C 10,6 C 68 % 1022,0 hPa 0,0 l/m 2 min 0 min 476 W/m 16,1 km/h (3 Bft) 95,65 %
02.06.2023 11:18 13,7 C 15,6 C 10,6 C 68 % 1021,9 hPa 0,0 l/m 0 min 0 min 378 W/m 9,7 km/h (2 Bft) 95,74 %
02.06.2023 11:20 13,8 C 15,0 C 10,6 C 67 % 1021,9 hPa 0,0 l/m 0 min 0 min 363 W/m 12,9 km/h (3 Bft) 95,74 %
02.06.2023 11:22 13,7 C 15,0 C 10,6 C 67 % 1021,9 hPa 0,0 l/m 0 min 0 min 373 W/m 12,9 km/h (3 Bft) 95,74 %
02.06.2023 11:24 13,8 C 15,0 C 10,6 C 67 % 1021,9 hPa 0,0 l/m 0 min 0 min 383 W/m 12,9 km/h (3 Bft) 95,74 %
02.06.2023 11:26 13,8 C 15,0 C 10,6 C 68 % 1021,9 hPa 0,0 l/m 0 min 0 min 403 W/m 19,3 km/h (3 Bft) 95,74 %
02.06.2023 11:28 13,8 C 15,0 C 10,6 C 67 % 1021,9 hPa 0,0 l/m 0 min 0 min 364 W/m 9,7 km/h (2 Bft) 95,65 %
02.06.2023 11:30 13,8 C 15,0 C 10,6 C 67 % 1021,9 hPa 0,0 l/m 0 min 0 min 366 W/m 6,4 km/h (2 Bft) 95,83 %
02.06.2023 11:32 13,8 C 15,0 C 10,6 C 67 % 1021,8 hPa 0,0 l/m 2 min 0 min 417 W/m 12,9 km/h (3 Bft) 97,87 %
02.06.2023 11:34 13,8 C 15,0 C 10,6 C 68 % 1021,8 hPa 0,0 l/m 0 min 0 min 387 W/m 12,9 km/h (3 Bft) 95,74 %
02.06.2023 11:36 13,8 C 16,1 C 11,7 C 68 % 1021,8 hPa 0,0 l/m 0 min 0 min 414 W/m 16,1 km/h (3 Bft) 95,74 %
02.06.2023 11:38 13,9 C 16,7 C 12,2 C 68 % 1021,8 hPa 0,0 l/m 2 min 0 min 1032 W/m 12,9 km/h (3 Bft) 93,62 %
02.06.2023 11:40 14,2 C 17,8 C 13,3 C 68 % 1021,8 hPa 0,0 l/m 2 min 0 min 1032 W/m 6,4 km/h (2 Bft) 95,74 %
02.06.2023 11:42 14,3 C 17,2 C 12,8 C 67 % 1021,8 hPa 0,0 l/m 2 min 0 min 748 W/m 12,9 km/h (3 Bft) 95,65 %
02.06.2023 11:44 14,3 C 16,7 C 12,2 C 66 % 1021,8 hPa 0,0 l/m 2 min 0 min 460 W/m 12,9 km/h (3 Bft) 93,62 %
02.06.2023 11:46 14,3 C 16,7 C 11,7 C 66 % 1021,8 hPa 0,0 l/m 2 min 0 min 440 W/m 16,1 km/h (3 Bft) 97,87 %
02.06.2023 11:48 14,3 C 16,7 C 11,7 C 67 % 1021,8 hPa 0,0 l/m 0 min 0 min 399 W/m 16,1 km/h (3 Bft) 95,74 %
02.06.2023 11:50 14,6 C 18,9 C 12,8 C 67 % 1021,8 hPa 0,0 l/m 2 min 0 min 534 W/m 6,4 km/h (2 Bft) 95,74 %
02.06.2023 11:52 14,7 C 18,3 C 12,2 C 66 % 1021,8 hPa 0,0 l/m 2 min 0 min 787 W/m 12,9 km/h (3 Bft) 97,87 %
02.06.2023 11:54 14,7 C 17,2 C 12,2 C 66 % 1021,8 hPa 0,0 l/m 0 min 0 min 336 W/m 6,4 km/h (2 Bft) 97,87 %
02.06.2023 11:56 14,7 C 16,7 C 12,2 C 66 % 1021,9 hPa 0,0 l/m 0 min 0 min 369 W/m 6,4 km/h (2 Bft) 97,83 %
02.06.2023 11:58 14,7 C 17,8 C 12,8 C 66 % 1021,8 hPa 0,0 l/m 2 min 0 min 596 W/m 19,3 km/h (3 Bft) 97,87 %
02.06.2023 12:00 14,7 C 17,2 C 12,8 C 66 % 1021,9 hPa 0,0 l/m 2 min 0 min 682 W/m 16,1 km/h (3 Bft) 97,87 %
02.06.2023 12:02 14,7 C 16,7 C 12,8 C 66 % 1021,8 hPa 0,0 l/m 0 min 0 min 378 W/m 16,1 km/h (3 Bft) 97,87 %
02.06.2023 12:04 14,7 C 17,8 C 12,8 C 66 % 1021,8 hPa 0,0 l/m 2 min 0 min 618 W/m 6,4 km/h (2 Bft) 97,87 %
02.06.2023 12:07 14,8 C 18,3 C 13,3 C 66 % 1021,7 hPa 0,0 l/m 3 min 0 min 984 W/m 6,4 km/h (2 Bft) 97,87 %
02.06.2023 12:10 14,9 C 17,8 C 13,9 C 64 % 1021,7 hPa 0,0 l/m 3 min 0 min 762 W/m 19,3 km/h (3 Bft) 99,30 %
02.06.2023 12:12 14,9 C 16,7 C 13,3 C 65 % 1021,7 hPa 0,0 l/m 0 min 0 min 337 W/m 12,9 km/h (3 Bft) 100,00 %
02.06.2023 12:14 14,8 C 16,7 C 12,8 C 65 % 1021,7 hPa 0,0 l/m 0 min 0 min 275 W/m 6,4 km/h (2 Bft) 97,87 %
02.06.2023 12:16 14,7 C 17,2 C 13,3 C 65 % 1021,6 hPa 0,0 l/m 0 min 0 min 279 W/m 16,1 km/h (3 Bft) 100,00 %
02.06.2023 12:18 14,7 C 18,9 C 14,4 C 66 % 1021,6 hPa 0,0 l/m 0 min 0 min 279 W/m 6,4 km/h (2 Bft) 100,00 %
02.06.2023 12:20 14,8 C 18,3 C 14,4 C 66 % 1021,6 hPa 0,0 l/m 0 min 0 min 279 W/m 25,7 km/h (4 Bft) 100,00 %
02.06.2023 12:22 14,9 C 18,9 C 15,0 C 67 % 1021,6 hPa 0,0 l/m 0 min 0 min 279 W/m 6,4 km/h (2 Bft) 100,00 %
02.06.2023 12:24 15,1 C 19,4 C 15,6 C 66 % 1021,6 hPa 0,0 l/m 0 min 0 min 279 W/m 9,7 km/h (2 Bft) 100,00 %
02.06.2023 12:26 15,2 C 20,6 C 16,1 C 66 % 1021,6 hPa 0,0 l/m 0 min 0 min 279 W/m 6,4 km/h (2 Bft) 100,00 %
02.06.2023 12:28 15,4 C 20,0 C 17,2 C 65 % 1021,6 hPa 0,0 l/m 2 min 0 min 826 W/m 19,3 km/h (3 Bft) 100,00 %
02.06.2023 12:30 15,6 C 21,1 C 17,8 C 65 % 1021,6 hPa 0,0 l/m 2 min 0 min 921 W/m 3,2 km/h (1 Bft) 100,00 %
02.06.2023 12:32 15,8 C 21,7 C 18,3 C 64 % 1021,6 hPa 0,0 l/m 2 min 0 min 917 W/m 12,9 km/h (3 Bft) 100,00 %
02.06.2023 12:34 15,9 C 21,7 C 18,3 C 63 % 1021,6 hPa 0,0 l/m 2 min 0 min 908 W/m 9,7 km/h (2 Bft) 100,00 %
02.06.2023 12:36 16,1 C 21,7 C 18,3 C 63 % 1021,5 hPa 0,0 l/m 2 min 0 min 911 W/m 9,7 km/h (2 Bft) 100,00 %
02.06.2023 12:38 16,3 C 22,2 C 18,3 C 63 % 1021,6 hPa 0,0 l/m 2 min 0 min 917 W/m 9,7 km/h (2 Bft) 100,00 %
02.06.2023 12:40 16,3 C 21,1 C 18,9 C 63 % 1021,6 hPa 0,0 l/m 2 min 0 min 916 W/m 16,1 km/h (3 Bft) 100,00 %
02.06.2023 12:42 16,3 C 21,1 C 18,9 C 62 % 1021,5 hPa 0,0 l/m 2 min 0 min 936 W/m 9,7 km/h (2 Bft) 97,87 %
02.06.2023 12:44 16,4 C 22,2 C 19,4 C 64 % 1021,5 hPa 0,0 l/m 2 min 0 min 955 W/m 9,7 km/h (2 Bft) 100,00 %
02.06.2023 12:46 16,6 C 22,2 C 19,4 C 62 % 1021,5 hPa 0,0 l/m 2 min 0 min 965 W/m 12,9 km/h (3 Bft) 93,48 %
02.06.2023 12:48 16,8 C 22,2 C 19,4 C 63 % 1021,4 hPa 0,0 l/m 2 min 0 min 963 W/m 16,1 km/h (3 Bft) 97,87 %
02.06.2023 12:50 16,9 C 22,2 C 19,4 C 63 % 1021,4 hPa 0,0 l/m 2 min 0 min 932 W/m 16,1 km/h (3 Bft) 97,87 %
02.06.2023 12:52 17,0 C 22,2 C 19,4 C 62 % 1021,5 hPa 0,0 l/m 2 min 0 min 939 W/m 9,7 km/h (2 Bft) 97,87 %
02.06.2023 12:54 17,1 C 23,3 C 19,4 C 62 % 1021,4 hPa 0,0 l/m 2 min 0 min 943 W/m 12,9 km/h (3 Bft) 97,87 %
02.06.2023 12:56 17,2 C 23,3 C 20,0 C 62 % 1021,4 hPa 0,0 l/m 2 min 0 min 952 W/m 12,9 km/h (3 Bft) 95,74 %
02.06.2023 12:58 17,3 C 23,3 C 18,9 C 62 % 1021,4 hPa 0,0 l/m 2 min 0 min 948 W/m 9,7 km/h (2 Bft) 95,65 %
02.06.2023 13:00 17,4 C 23,3 C 19,4 C 62 % 1021,4 hPa 0,0 l/m 2 min 0 min 959 W/m 9,7 km/h (2 Bft) 97,87 %
02.06.2023 13:02 17,6 C 23,9 C 19,4 C 61 % 1021,4 hPa 0,0 l/m 2 min 0 min 993 W/m 9,7 km/h (2 Bft) 97,87 %
02.06.2023 13:04 17,7 C 22,8 C 19,4 C 61 % 1021,4 hPa 0,0 l/m 2 min 0 min 978 W/m 12,9 km/h (3 Bft) 95,83 %
02.06.2023 13:06 17,7 C 21,7 C 18,3 C 61 % 1021,4 hPa 0,0 l/m 0 min 0 min 278 W/m 16,1 km/h (3 Bft) 96,61 %
02.06.2023 13:08 17,7 C 22,2 C 18,9 C 61 % 1021,4 hPa 0,0 l/m 2 min 0 min 906 W/m 12,9 km/h (3 Bft) 97,14 %
02.06.2023 13:10 17,7 C 22,8 C 19,4 C 61 % 1021,4 hPa 0,0 l/m 2 min 0 min 946 W/m 9,7 km/h (2 Bft) 97,87 %
02.06.2023 13:12 17,8 C 23,3 C 20,0 C 61 % 1021,3 hPa 0,0 l/m 2 min 0 min 932 W/m 9,7 km/h (2 Bft) 95,65 %
02.06.2023 13:14 17,9 C 23,9 C 20,0 C 61 % 1021,3 hPa 0,0 l/m 2 min 0 min 924 W/m 12,9 km/h (3 Bft) 95,74 %
02.06.2023 13:16 18,1 C 24,4 C 20,6 C 60 % 1021,3 hPa 0,0 l/m 2 min 0 min 931 W/m 12,9 km/h (3 Bft) 93,62 %
02.06.2023 13:18 18,2 C 24,4 C 21,1 C 60 % 1021,2 hPa 0,0 l/m 2 min 0 min 959 W/m 6,4 km/h (2 Bft) 95,74 %
02.06.2023 13:20 18,3 C 23,9 C 21,1 C 60 % 1021,2 hPa 0,0 l/m 2 min 0 min 951 W/m 22,5 km/h (4 Bft) 95,74 %
02.06.2023 13:22 18,4 C 24,4 C 21,1 C 60 % 1021,2 hPa 0,0 l/m 2 min 0 min 944 W/m 16,1 km/h (3 Bft) 95,74 %
02.06.2023 13:24 18,5 C 25,0 C 20,0 C 60 % 1021,2 hPa 0,0 l/m 2 min 0 min 955 W/m 19,3 km/h (3 Bft) 93,62 %
02.06.2023 13:26 18,6 C 25,0 C 20,6 C 60 % 1021,2 hPa 0,0 l/m 2 min 0 min 1008 W/m 19,3 km/h (3 Bft) 95,65 %
02.06.2023 13:28 18,7 C 25,0 C 20,0 C 59 % 1021,2 hPa 0,0 l/m 2 min 0 min 1049 W/m 19,3 km/h (3 Bft) 95,74 %
02.06.2023 13:30 18,7 C 24,4 C 19,4 C 59 % 1021,3 hPa 0,0 l/m 2 min 0 min 1032 W/m 12,9 km/h (3 Bft) 97,87 %
02.06.2023 13:32 18,7 C 25,0 C 20,0 C 59 % 1021,3 hPa 0,0 l/m 2 min 0 min 992 W/m 9,7 km/h (2 Bft) 97,87 %
02.06.2023 13:34 18,8 C 25,0 C 20,6 C 59 % 1021,3 hPa 0,0 l/m 2 min 0 min 982 W/m 9,7 km/h (2 Bft) 97,87 %
02.06.2023 13:36 18,8 C 23,9 C 20,0 C 58 % 1021,3 hPa 0,0 l/m 2 min 0 min 1013 W/m 12,9 km/h (3 Bft) 97,87 %
02.06.2023 13:38 18,8 C 22,2 C 18,9 C 59 % 1021,3 hPa 0,0 l/m 2 min 0 min 1021 W/m 19,3 km/h (3 Bft) 95,74 %
02.06.2023 13:40 18,6 C 23,3 C 18,9 C 59 % 1021,3 hPa 0,0 l/m 2 min 0 min 1009 W/m 9,7 km/h (2 Bft) 97,83 %
02.06.2023 13:42 18,6 C 24,4 C 19,4 C 60 % 1021,3 hPa 0,0 l/m 2 min 0 min 1002 W/m 12,9 km/h (3 Bft) 97,87 %
02.06.2023 13:44 18,7 C 24,4 C 20,0 C 60 % 1021,3 hPa 0,0 l/m 2 min 0 min 1035 W/m 12,9 km/h (3 Bft) 100,00 %
02.06.2023 13:46 18,6 C 23,3 C 20,0 C 60 % 1021,3 hPa 0,0 l/m 2 min 0 min 1035 W/m 25,7 km/h (4 Bft) 100,00 %
02.06.2023 13:48 18,6 C 21,7 C 18,3 C 60 % 1021,2 hPa 0,0 l/m 2 min 0 min 675 W/m 22,5 km/h (4 Bft) 100,00 %
02.06.2023 13:50 18,6 C 23,3 C 18,3 C 61 % 1021,3 hPa 0,0 l/m 2 min 0 min 512 W/m 16,1 km/h (3 Bft) 100,00 %
02.06.2023 13:52 18,6 C 22,2 C 17,8 C 60 % 1021,3 hPa 0,0 l/m 2 min 0 min 512 W/m 12,9 km/h (3 Bft) 100,00 %
02.06.2023 13:54 18,6 C 22,8 C 17,8 C 61 % 1021,3 hPa 0,0 l/m 2 min 0 min 512 W/m 12,9 km/h (3 Bft) 100,00 %
02.06.2023 13:56 18,6 C 23,9 C 17,2 C 61 % 1021,2 hPa 0,0 l/m 2 min 0 min 512 W/m 19,3 km/h (3 Bft) 97,87 %
02.06.2023 13:58 18,6 C 20,6 C 16,1 C 60 % 1021,2 hPa 0,0 l/m 0 min 0 min 365 W/m 16,1 km/h (3 Bft) 100,00 %
02.06.2023 14:00 18,5 C 22,2 C 15,6 C 61 % 1021,2 hPa 0,0 l/m 0 min 0 min 241 W/m 9,7 km/h (2 Bft) 100,00 %
02.06.2023 14:02 18,6 C 24,4 C 15,6 C 62 % 1021,1 hPa 0,0 l/m 2 min 0 min 1000 W/m 16,1 km/h (3 Bft) 97,87 %
02.06.2023 14:04 18,7 C 23,9 C 15,6 C 62 % 1021,1 hPa 0,0 l/m 2 min 0 min 1107 W/m 16,1 km/h (3 Bft) 100,00 %
02.06.2023 14:06 18,8 C 25,0 C 15,0 C 62 % 1021,1 hPa 0,0 l/m 2 min 0 min 1056 W/m 12,9 km/h (3 Bft) 100,00 %
02.06.2023 14:08 18,8 C 25,6 C 15,0 C 62 % 1021,1 hPa 0,0 l/m 2 min 0 min 994 W/m 16,1 km/h (3 Bft) 100,00 %
02.06.2023 14:10 18,9 C 25,6 C 15,6 C 62 % 1021,1 hPa 0,0 l/m 2 min 0 min 981 W/m 12,9 km/h (3 Bft) 100,00 %
02.06.2023 14:12 19,1 C 26,7 C 15,0 C 62 % 1021,0 hPa 0,0 l/m 2 min 0 min 973 W/m 12,9 km/h (3 Bft) 97,87 %
02.06.2023 14:14 19,2 C 27,2 C 15,0 C 61 % 1021,1 hPa 0,0 l/m 2 min 0 min 997 W/m 12,9 km/h (3 Bft) 100,00 %
02.06.2023 14:16 19,3 C 26,1 C 15,0 C 60 % 1021,0 hPa 0,0 l/m 2 min 0 min 1025 W/m 29,0 km/h (5 Bft) 100,00 %
02.06.2023 14:18 19,3 C 25,0 C 15,0 C 61 % 1021,1 hPa 0,0 l/m 2 min 0 min 1018 W/m 29,0 km/h (5 Bft) 97,87 %
02.06.2023 14:20 19,4 C 26,7 C 15,0 C 61 % 1021,1 hPa 0,0 l/m 2 min 0 min 999 W/m 16,1 km/h (3 Bft) 100,00 %
02.06.2023 14:22 19,6 C 26,1 C 15,6 C 60 % 1021,0 hPa 0,0 l/m 2 min 0 min 1005 W/m 16,1 km/h (3 Bft) 97,87 %
02.06.2023 14:24 19,6 C 26,7 C 15,6 C 60 % 1021,0 hPa 0,0 l/m 2 min 0 min 997 W/m 16,1 km/h (3 Bft) 97,87 %
02.06.2023 14:26 19,7 C 27,2 C 15,6 C 60 % 1021,0 hPa 0,0 l/m 2 min 0 min 972 W/m 16,1 km/h (3 Bft) 100,00 %
02.06.2023 14:28 19,8 C 26,7 C 15,6 C 60 % 1021,0 hPa 0,0 l/m 2 min 0 min 997 W/m 16,1 km/h (3 Bft) 100,00 %
02.06.2023 14:30 19,8 C 25,6 C 15,0 C 59 % 1021,1 hPa 0,0 l/m 2 min 0 min 1014 W/m 19,3 km/h (3 Bft) 100,00 %
02.06.2023 14:32 19,8 C 26,1 C 15,0 C 59 % 1021,0 hPa 0,0 l/m 2 min 0 min 966 W/m 12,9 km/h (3 Bft) 100,00 %
02.06.2023 14:34 19,8 C 26,7 C 15,0 C 59 % 1021,0 hPa 0,0 l/m 2 min 0 min 925 W/m 12,9 km/h (3 Bft) 97,83 %
02.06.2023 14:36 19,8 C 26,1 C 15,0 C 59 % 1020,9 hPa 0,0 l/m 2 min 0 min 948 W/m 19,3 km/h (3 Bft) 97,87 %
02.06.2023 14:38 19,8 C 25,0 C 15,0 C 59 % 1021,0 hPa 0,0 l/m 2 min 0 min 997 W/m 16,1 km/h (3 Bft) 97,87 %
02.06.2023 14:40 19,7 C 24,4 C 15,0 C 60 % 1020,9 hPa 0,0 l/m 2 min 0 min 1039 W/m 19,3 km/h (3 Bft) 95,74 %
02.06.2023 14:42 19,7 C 25,6 C 15,0 C 60 % 1021,0 hPa 0,0 l/m 2 min 0 min 980 W/m 12,9 km/h (3 Bft) 100,00 %
02.06.2023 14:44 19,8 C 26,1 C 15,6 C 60 % 1021,0 hPa 0,0 l/m 2 min 0 min 982 W/m 12,9 km/h (3 Bft) 97,87 %
02.06.2023 14:46 19,9 C 26,7 C 15,6 C 59 % 1021,0 hPa 0,0 l/m 2 min 0 min 1011 W/m 12,9 km/h (3 Bft) 100,00 %
02.06.2023 14:48 19,9 C 25,6 C 15,6 C 59 % 1021,0 hPa 0,0 l/m 2 min 0 min 990 W/m 12,9 km/h (3 Bft) 97,87 %
02.06.2023 14:50 19,9 C 26,1 C 15,6 C 60 % 1021,0 hPa 0,0 l/m 2 min 0 min 990 W/m 29,0 km/h (5 Bft) 100,00 %
02.06.2023 14:52 19,9 C 25,6 C 15,6 C 59 % 1021,0 hPa 0,0 l/m 2 min 0 min 1002 W/m 19,3 km/h (3 Bft) 100,00 %
02.06.2023 14:54 19,8 C 23,3 C 15,6 C 59 % 1021,0 hPa 0,0 l/m 2 min 0 min 1037 W/m 22,5 km/h (4 Bft) 100,00 %
02.06.2023 14:56 19,8 C 22,2 C 15,0 C 60 % 1020,9 hPa 0,0 l/m 2 min 0 min 597 W/m 22,5 km/h (4 Bft) 100,00 %
02.06.2023 14:58 19,7 C 23,3 C 15,0 C 59 % 1020,9 hPa 0,0 l/m 2 min 0 min 699 W/m 12,9 km/h (3 Bft) 95,74 %
02.06.2023 15:00 19,7 C 23,9 C 15,0 C 60 % 1021,0 hPa 0,0 l/m 2 min 0 min 943 W/m 16,1 km/h (3 Bft) 100,00 %
02.06.2023 15:02 19,6 C 23,9 C 15,0 C 59 % 1021,0 hPa 0,0 l/m 2 min 0 min 990 W/m 25,7 km/h (4 Bft) 97,87 %
02.06.2023 15:04 19,6 C 23,9 C 15,0 C 60 % 1020,9 hPa 0,0 l/m 2 min 0 min 551 W/m 12,9 km/h (3 Bft) 100,00 %
02.06.2023 15:06 19,6 C 22,8 C 15,0 C 60 % 1020,9 hPa 0,0 l/m 0 min 0 min 342 W/m 19,3 km/h (3 Bft) 98,31 %
02.06.2023 15:08 19,6 C 23,9 C 15,0 C 60 % 1021,0 hPa 0,0 l/m 0 min 0 min 292 W/m 6,4 km/h (2 Bft) 97,14 %
02.06.2023 15:10 19,6 C 25,0 C 15,0 C 60 % 1020,9 hPa 0,0 l/m 2 min 0 min 865 W/m 12,9 km/h (3 Bft) 97,87 %
02.06.2023 15:12 19,7 C 23,3 C 15,0 C 60 % 1021,0 hPa 0,0 l/m 2 min 0 min 1007 W/m 16,1 km/h (3 Bft) 95,74 %
02.06.2023 15:14 19,7 C 23,3 C 15,0 C 59 % 1021,0 hPa 0,0 l/m 2 min 0 min 616 W/m 12,9 km/h (3 Bft) 95,65 %
02.06.2023 15:16 19,7 C 24,4 C 15,0 C 60 % 1021,0 hPa 0,0 l/m 2 min 0 min 500 W/m 19,3 km/h (3 Bft) 93,62 %
02.06.2023 15:18 19,7 C 23,3 C 15,0 C 59 % 1021,0 hPa 0,0 l/m 2 min 0 min 694 W/m 19,3 km/h (3 Bft) 95,74 %
02.06.2023 15:20 19,6 C 22,8 C 15,0 C 60 % 1020,9 hPa 0,0 l/m 0 min 0 min 371 W/m 16,1 km/h (3 Bft) 93,62 %
02.06.2023 15:22 19,6 C 21,7 C 15,0 C 60 % 1021,0 hPa 0,0 l/m 0 min 0 min 310 W/m 12,9 km/h (3 Bft) 93,18 %
02.06.2023 15:24 19,5 C 23,3 C 15,0 C 60 % 1021,0 hPa 0,0 l/m 0 min 0 min 280 W/m 12,9 km/h (3 Bft) 93,88 %
02.06.2023 15:26 19,6 C 25,0 C 15,0 C 61 % 1021,0 hPa 0,0 l/m 2 min 0 min 928 W/m 9,7 km/h (2 Bft) 91,49 %
02.06.2023 15:28 19,7 C 25,0 C 15,6 C 61 % 1021,1 hPa 0,0 l/m 2 min 0 min 969 W/m 12,9 km/h (3 Bft) 93,62 %
02.06.2023 15:30 19,8 C 23,9 C 15,6 C 60 % 1020,9 hPa 0,0 l/m 2 min 0 min 990 W/m 12,9 km/h (3 Bft) 91,49 %
02.06.2023 15:32 19,8 C 25,6 C 16,1 C 60 % 1021,0 hPa 0,0 l/m 2 min 0 min 795 W/m 12,9 km/h (3 Bft) 95,74 %
02.06.2023 15:34 20,1 C 25,0 C 16,1 C 60 % 1021,0 hPa 0,0 l/m 2 min 0 min 894 W/m 16,1 km/h (3 Bft) 91,49 %
02.06.2023 15:36 20,1 C 24,4 C 15,6 C 59 % 1021,0 hPa 0,0 l/m 2 min 0 min 970 W/m 19,3 km/h (3 Bft) 91,30 %
02.06.2023 15:38 20,1 C 23,9 C 15,6 C 59 % 1021,0 hPa 0,0 l/m 2 min 0 min 970 W/m 22,5 km/h (4 Bft) 93,62 %
02.06.2023 15:40 20,0 C 23,3 C 15,6 C 59 % 1021,0 hPa 0,0 l/m 2 min 0 min 970 W/m 25,7 km/h (4 Bft) 91,49 %
02.06.2023 15:42 19,9 C 25,0 C 15,6 C 60 % 1021,0 hPa 0,0 l/m 2 min 0 min 940 W/m 12,9 km/h (3 Bft) 95,74 %
02.06.2023 15:44 20,1 C 25,6 C 16,1 C 61 % 1021,0 hPa 0,0 l/m 2 min 0 min 930 W/m 9,7 km/h (2 Bft) 95,74 %
02.06.2023 15:46 20,1 C 23,9 C 16,1 C 59 % 1021,0 hPa 0,0 l/m 2 min 0 min 967 W/m 16,1 km/h (3 Bft) 95,74 %
02.06.2023 15:48 20,1 C 23,3 C 15,6 C 60 % 1020,9 hPa 0,0 l/m 0 min 0 min 376 W/m 16,1 km/h (3 Bft) 95,74 %
02.06.2023 15:50 19,9 C 21,7 C 15,6 C 60 % 1020,9 hPa 0,0 l/m 0 min 0 min 371 W/m 19,3 km/h (3 Bft) 93,62 %
02.06.2023 15:52 19,8 C 22,2 C 15,0 C 59 % 1020,9 hPa 0,0 l/m 2 min 0 min 674 W/m 16,1 km/h (3 Bft) 95,65 %
02.06.2023 15:54 19,8 C 23,3 C 15,6 C 60 % 1020,9 hPa 0,0 l/m 2 min 0 min 899 W/m 16,1 km/h (3 Bft) 95,74 %
02.06.2023 15:56 19,8 C 23,3 C 15,6 C 61 % 1020,9 hPa 0,0 l/m 2 min 0 min 914 W/m 16,1 km/h (3 Bft) 95,74 %
02.06.2023 15:58 19,9 C 23,3 C 15,6 C 60 % 1020,8 hPa 0,0 l/m 2 min 0 min 914 W/m 16,1 km/h (3 Bft) 95,74 %
02.06.2023 16:00 19,9 C 23,9 C 15,6 C 60 % 1020,8 hPa 0,0 l/m 2 min 0 min 911 W/m 19,3 km/h (3 Bft) 93,62 %
02.06.2023 16:02 19,9 C 25,0 C 16,1 C 60 % 1020,8 hPa 0,0 l/m 2 min 0 min 900 W/m 12,9 km/h (3 Bft) 95,74 %
02.06.2023 16:04 20,1 C 25,6 C 16,1 C 60 % 1020,9 hPa 0,0 l/m 2 min 0 min 732 W/m 12,9 km/h (3 Bft) 97,83 %
02.06.2023 16:06 20,1 C 25,6 C 16,1 C 60 % 1020,9 hPa 0,0 l/m 2 min 0 min 688 W/m 16,1 km/h (3 Bft) 98,31 %
02.06.2023 16:08 20,2 C 24,4 C 16,1 C 59 % 1020,9 hPa 0,0 l/m 2 min 0 min 905 W/m 16,1 km/h (3 Bft) 100,00 %
02.06.2023 16:10 20,1 C 23,9 C 15,6 C 59 % 1020,9 hPa 0,0 l/m 2 min 0 min 730 W/m 12,9 km/h (3 Bft) 100,00 %
02.06.2023 16:12 20,1 C 23,9 C 15,6 C 60 % 1020,8 hPa 0,0 l/m 2 min 0 min 704 W/m 16,1 km/h (3 Bft) 100,00 %
02.06.2023 16:14 20,1 C 22,8 C 16,1 C 60 % 1020,9 hPa 0,0 l/m 0 min 0 min 229 W/m 16,1 km/h (3 Bft) 100,00 %
02.06.2023 16:16 20,0 C 21,1 C 15,6 C 59 % 1020,9 hPa 0,0 l/m 0 min 0 min 157 W/m 16,1 km/h (3 Bft) 100,00 %
02.06.2023 16:18 19,8 C 22,8 C 15,0 C 59 % 1020,9 hPa 0,0 l/m 2 min 0 min 493 W/m 12,9 km/h (3 Bft) 100,00 %
02.06.2023 16:20 19,8 C 23,9 C 15,6 C 61 % 1020,9 hPa 0,0 l/m 2 min 0 min 788 W/m 19,3 km/h (3 Bft) 97,87 %
02.06.2023 16:22 19,9 C 24,4 C 15,6 C 60 % 1020,9 hPa 0,0 l/m 2 min 0 min 790 W/m 9,7 km/h (2 Bft) 100,00 %
02.06.2023 16:24 19,9 C 25,0 C 16,1 C 60 % 1020,8 hPa 0,0 l/m 2 min 0 min 790 W/m 12,9 km/h (3 Bft) 100,00 %
02.06.2023 16:26 20,1 C 25,0 C 16,1 C 60 % 1020,8 hPa 0,0 l/m 2 min 0 min 783 W/m 12,9 km/h (3 Bft) 100,00 %
02.06.2023 16:28 20,1 C 25,0 C 16,1 C 61 % 1020,7 hPa 0,0 l/m 2 min 0 min 798 W/m 19,3 km/h (3 Bft) 100,00 %
02.06.2023 16:30 20,2 C 25,0 C 16,1 C 59 % 1020,8 hPa 0,0 l/m 2 min 0 min 816 W/m 12,9 km/h (3 Bft) 100,00 %
02.06.2023 16:32 20,2 C 23,3 C 16,1 C 59 % 1020,7 hPa 0,0 l/m 2 min 0 min 816 W/m 12,9 km/h (3 Bft) 97,83 %
02.06.2023 16:34 20,2 C 23,9 C 16,1 C 59 % 1020,7 hPa 0,0 l/m 2 min 0 min 816 W/m 12,9 km/h (3 Bft) 100,00 %
02.06.2023 16:36 20,2 C 24,4 C 16,1 C 59 % 1020,7 hPa 0,0 l/m 2 min 0 min 766 W/m 12,9 km/h (3 Bft) 100,00 %
02.06.2023 16:38 20,2 C 25,0 C 16,7 C 60 % 1020,7 hPa 0,0 l/m 2 min 0 min 762 W/m 12,9 km/h (3 Bft) 100,00 %
02.06.2023 16:40 20,3 C 25,6 C 16,7 C 59 % 1020,7 hPa 0,0 l/m 2 min 0 min 772 W/m 12,9 km/h (3 Bft) 100,00 %
02.06.2023 16:42 20,4 C 26,1 C 16,7 C 59 % 1020,7 hPa 0,0 l/m 2 min 0 min 759 W/m 12,9 km/h (3 Bft) 100,00 %
02.06.2023 16:44 20,4 C 25,6 C 16,1 C 59 % 1020,6 hPa 0,0 l/m 2 min 0 min 768 W/m 12,9 km/h (3 Bft) 100,00 %
02.06.2023 16:46 20,4 C 25,0 C 16,7 C 58 % 1020,6 hPa 0,0 l/m 2 min 0 min 772 W/m 19,3 km/h (3 Bft) 95,65 %
02.06.2023 16:48 20,3 C 24,4 C 16,1 C 58 % 1020,6 hPa 0,0 l/m 2 min 0 min 754 W/m 12,9 km/h (3 Bft) 100,00 %
02.06.2023 16:50 20,3 C 23,9 C 16,1 C 57 % 1020,6 hPa 0,0 l/m 2 min 0 min 770 W/m 22,5 km/h (4 Bft) 100,00 %
02.06.2023 16:52 20,2 C 23,9 C 16,1 C 58 % 1020,6 hPa 0,0 l/m 2 min 0 min 740 W/m 22,5 km/h (4 Bft) 95,74 %
02.06.2023 16:54 20,1 C 23,9 C 16,1 C 58 % 1020,6 hPa 0,0 l/m 2 min 0 min 704 W/m 16,1 km/h (3 Bft) 100,00 %
02.06.2023 16:56 20,1 C 24,4 C 16,7 C 59 % 1020,6 hPa 0,0 l/m 2 min 0 min 704 W/m 16,1 km/h (3 Bft) 97,87 %
02.06.2023 16:58 20,2 C 24,4 C 16,7 C 59 % 1020,6 hPa 0,0 l/m 2 min 0 min 704 W/m 19,3 km/h (3 Bft) 100,00 %
02.06.2023 17:00 20,3 C 25,0 C 17,2 C 59 % 1020,6 hPa 0,0 l/m 2 min 0 min 696 W/m 22,5 km/h (4 Bft) 100,00 %
02.06.2023 17:02 20,3 C 25,6 C 17,2 C 59 % 1020,6 hPa 0,0 l/m 2 min 0 min 691 W/m 12,9 km/h (3 Bft) 97,87 %
02.06.2023 17:04 20,4 C 25,6 C 17,2 C 59 % 1020,6 hPa 0,0 l/m 2 min 0 min 689 W/m 22,5 km/h (4 Bft) 100,00 %
02.06.2023 17:06 20,4 C 25,0 C 17,2 C 59 % 1020,6 hPa 0,0 l/m 2 min 0 min 678 W/m 12,9 km/h (3 Bft) 97,92 %
02.06.2023 17:08 20,4 C 25,0 C 16,7 C 59 % 1020,6 hPa 0,0 l/m 2 min 0 min 668 W/m 29,0 km/h (5 Bft) 100,00 %
02.06.2023 17:10 20,4 C 25,6 C 17,2 C 59 % 1020,5 hPa 0,0 l/m 2 min 0 min 661 W/m 19,3 km/h (3 Bft) 95,74 %
02.06.2023 17:12 20,4 C 25,6 C 17,2 C 59 % 1020,4 hPa 0,0 l/m 2 min 0 min 664 W/m 16,1 km/h (3 Bft) 100,00 %
02.06.2023 17:14 20,5 C 25,0 C 17,2 C 59 % 1020,5 hPa 0,0 l/m 2 min 0 min 662 W/m 19,3 km/h (3 Bft) 100,00 %
02.06.2023 17:16 20,6 C 25,0 C 17,2 C 59 % 1020,4 hPa 0,0 l/m 2 min 0 min 658 W/m 16,1 km/h (3 Bft) 97,87 %
02.06.2023 17:18 20,6 C 25,0 C 17,2 C 58 % 1020,4 hPa 0,0 l/m 2 min 0 min 650 W/m 16,1 km/h (3 Bft) 95,74 %
02.06.2023 17:20 20,6 C 24,4 C 17,2 C 57 % 1020,5 hPa 0,0 l/m 2 min 0 min 504 W/m 16,1 km/h (3 Bft) 97,87 %
02.06.2023 17:22 20,6 C 24,4 C 16,7 C 58 % 1020,5 hPa 0,0 l/m 2 min 0 min 440 W/m 9,7 km/h (2 Bft) 97,87 %
02.06.2023 17:24 20,4 C 24,4 C 17,2 C 59 % 1020,5 hPa 0,0 l/m 2 min 0 min 621 W/m 19,3 km/h (3 Bft) 97,87 %
02.06.2023 17:26 20,5 C 24,4 C 17,2 C 58 % 1020,4 hPa 0,0 l/m 2 min 0 min 616 W/m 19,3 km/h (3 Bft) 97,87 %
02.06.2023 17:28 20,6 C 25,6 C 17,8 C 59 % 1020,4 hPa 0,0 l/m 2 min 0 min 612 W/m 12,9 km/h (3 Bft) 97,83 %
02.06.2023 17:30 20,7 C 25,6 C 17,8 C 59 % 1020,4 hPa 0,0 l/m 2 min 0 min 614 W/m 9,7 km/h (2 Bft) 97,87 %
02.06.2023 17:32 20,8 C 25,6 C 17,8 C 59 % 1020,4 hPa 0,0 l/m 2 min 0 min 623 W/m 19,3 km/h (3 Bft) 95,74 %
02.06.2023 17:34 20,8 C 25,0 C 17,2 C 59 % 1020,4 hPa 0,0 l/m 2 min 0 min 621 W/m 12,9 km/h (3 Bft) 97,87 %
02.06.2023 17:36 20,8 C 23,9 C 17,2 C 58 % 1020,4 hPa 0,0 l/m 0 min 0 min 298 W/m 19,3 km/h (3 Bft) 97,87 %
02.06.2023 17:38 20,6 C 23,9 C 16,7 C 58 % 1020,4 hPa 0,0 l/m 2 min 0 min 505 W/m 6,4 km/h (2 Bft) 95,74 %
02.06.2023 17:40 20,4 C 23,9 C 16,7 C 58 % 1020,4 hPa 0,0 l/m 2 min 0 min 577 W/m 16,1 km/h (3 Bft) 97,83 %
02.06.2023 17:42 20,4 C 24,4 C 17,2 C 59 % 1020,4 hPa 0,0 l/m 2 min 0 min 595 W/m 16,1 km/h (3 Bft) 97,87 %
02.06.2023 17:44 20,4 C 24,4 C 17,2 C 59 % 1020,4 hPa 0,0 l/m 2 min 0 min 616 W/m 16,1 km/h (3 Bft) 97,87 %
02.06.2023 17:46 20,4 C 23,3 C 17,2 C 59 % 1020,4 hPa 0,0 l/m 2 min 0 min 619 W/m 19,3 km/h (3 Bft) 97,87 %
02.06.2023 17:48 20,4 C 23,3 C 17,2 C 58 % 1020,4 hPa 0,0 l/m 2 min 0 min 619 W/m 12,9 km/h (3 Bft) 95,74 %
02.06.2023 17:50 20,3 C 23,3 C 16,7 C 59 % 1020,4 hPa 0,0 l/m 2 min 0 min 619 W/m 12,9 km/h (3 Bft) 97,87 %
02.06.2023 17:52 20,3 C 23,9 C 17,2 C 59 % 1020,4 hPa 0,0 l/m 2 min 0 min 585 W/m 19,3 km/h (3 Bft) 97,87 %
02.06.2023 17:54 20,2 C 23,3 C 16,7 C 58 % 1020,3 hPa 0,0 l/m 2 min 0 min 559 W/m 12,9 km/h (3 Bft) 97,83 %
02.06.2023 17:56 20,2 C 22,8 C 16,7 C 59 % 1020,3 hPa 0,0 l/m 2 min 0 min 539 W/m 25,7 km/h (4 Bft) 97,87 %
02.06.2023 17:58 20,1 C 21,7 C 16,1 C 58 % 1020,3 hPa 0,0 l/m 2 min 0 min 305 W/m 19,3 km/h (3 Bft) 97,87 %
02.06.2023 18:00 19,9 C 21,1 C 16,1 C 58 % 1020,3 hPa 0,0 l/m 0 min 0 min 140 W/m 12,9 km/h (3 Bft) 97,87 %
02.06.2023 18:02 19,8 C 22,2 C 16,1 C 59 % 1020,3 hPa 0,0 l/m 2 min 0 min 469 W/m 19,3 km/h (3 Bft) 95,74 %
02.06.2023 18:04 19,8 C 22,8 C 16,1 C 59 % 1020,3 hPa 0,0 l/m 2 min 0 min 507 W/m 19,3 km/h (3 Bft) 97,87 %
02.06.2023 18:07 19,9 C 23,9 C 16,7 C 59 % 1020,2 hPa 0,0 l/m 3 min 0 min 501 W/m 25,7 km/h (4 Bft) 97,87 %
02.06.2023 18:08 20,1 C 24,4 C 16,7 C 59 % 1020,2 hPa 0,0 l/m 1 min 0 min 501 W/m 25,7 km/h (4 Bft) 97,62 %
02.06.2023 18:10 20,2 C 24,4 C 17,2 C 59 % 1020,2 hPa 0,0 l/m 2 min 0 min 500 W/m 16,1 km/h (3 Bft) 97,87 %
02.06.2023 18:12 20,3 C 25,0 C 17,2 C 58 % 1020,3 hPa 0,0 l/m 2 min 0 min 502 W/m 9,7 km/h (2 Bft) 93,62 %
02.06.2023 18:14 20,4 C 25,0 C 17,2 C 58 % 1020,2 hPa 0,0 l/m 2 min 0 min 516 W/m 22,5 km/h (4 Bft) 97,83 %
02.06.2023 18:16 20,5 C 25,6 C 17,8 C 58 % 1020,2 hPa 0,0 l/m 2 min 0 min 515 W/m 25,7 km/h (4 Bft) 97,87 %
02.06.2023 18:18 20,5 C 25,0 C 17,8 C 58 % 1020,2 hPa 0,0 l/m 2 min 0 min 495 W/m 19,3 km/h (3 Bft) 97,87 %
02.06.2023 18:20 20,5 C 25,0 C 17,8 C 58 % 1020,2 hPa 0,0 l/m 2 min 0 min 486 W/m 12,9 km/h (3 Bft) 95,74 %
02.06.2023 18:22 20,5 C 25,0 C 17,2 C 58 % 1020,1 hPa 0,0 l/m 2 min 0 min 458 W/m 12,9 km/h (3 Bft) 95,74 %
02.06.2023 18:24 20,6 C 25,0 C 17,2 C 58 % 1020,2 hPa 0,0 l/m 2 min 0 min 413 W/m 16,1 km/h (3 Bft) 95,74 %
02.06.2023 18:26 20,6 C 23,9 C 17,2 C 58 % 1020,2 hPa 0,0 l/m 2 min 0 min 419 W/m 12,9 km/h (3 Bft) 95,74 %
02.06.2023 18:28 20,5 C 23,9 C 17,2 C 58 % 1020,1 hPa 0,0 l/m 2 min 0 min 251 W/m 25,7 km/h (4 Bft) 95,65 %
02.06.2023 18:30 20,4 C 24,4 C 17,2 C 58 % 1020,1 hPa 0,0 l/m 2 min 0 min 441 W/m 22,5 km/h (4 Bft) 93,62 %
02.06.2023 18:32 20,3 C 24,4 C 17,2 C 58 % 1020,2 hPa 0,0 l/m 2 min 0 min 421 W/m 19,3 km/h (3 Bft) 95,74 %
02.06.2023 18:34 20,2 C 23,9 C 17,2 C 58 % 1020,1 hPa 0,0 l/m 2 min 0 min 404 W/m 16,1 km/h (3 Bft) 97,87 %
02.06.2023 18:36 20,2 C 25,0 C 17,2 C 59 % 1020,1 hPa 0,0 l/m 2 min 0 min 407 W/m 16,1 km/h (3 Bft) 95,74 %
02.06.2023 18:38 20,2 C 25,6 C 17,2 C 58 % 1020,1 hPa 0,0 l/m 2 min 0 min 398 W/m 12,9 km/h (3 Bft) 97,87 %
02.06.2023 18:40 20,1 C 25,0 C 17,2 C 58 % 1020,1 hPa 0,0 l/m 2 min 0 min 378 W/m 16,1 km/h (3 Bft) 95,74 %
02.06.2023 18:42 20,1 C 24,4 C 17,2 C 59 % 1020,1 hPa 0,0 l/m 2 min 0 min 374 W/m 19,3 km/h (3 Bft) 97,83 %
02.06.2023 18:44 20,0 C 25,0 C 17,2 C 58 % 1020,1 hPa 0,0 l/m 2 min 0 min 380 W/m 16,1 km/h (3 Bft) 97,87 %
02.06.2023 18:46 20,0 C 25,6 C 17,2 C 58 % 1020,1 hPa 0,0 l/m 2 min 0 min 375 W/m 16,1 km/h (3 Bft) 95,74 %
02.06.2023 18:48 20,0 C 25,6 C 17,2 C 58 % 1020,1 hPa 0,0 l/m 2 min 0 min 370 W/m 16,1 km/h (3 Bft) 95,74 %
02.06.2023 18:50 20,1 C 25,6 C 17,8 C 58 % 1020,1 hPa 0,0 l/m 2 min 0 min 353 W/m 12,9 km/h (3 Bft) 97,87 %
02.06.2023 18:52 20,1 C 25,6 C 17,2 C 58 % 1020,1 hPa 0,0 l/m 2 min 0 min 358 W/m 16,1 km/h (3 Bft) 97,87 %
02.06.2023 18:54 20,1 C 25,6 C 17,2 C 57 % 1020,1 hPa 0,0 l/m 2 min 0 min 348 W/m 16,1 km/h (3 Bft) 97,87 %
02.06.2023 18:56 20,1 C 25,6 C 17,2 C 58 % 1020,1 hPa 0,0 l/m 2 min 0 min 351 W/m 16,1 km/h (3 Bft) 95,65 %
02.06.2023 18:58 20,1 C 25,0 C 17,2 C 57 % 1020,1 hPa 0,0 l/m 2 min 0 min 344 W/m 12,9 km/h (3 Bft) 97,87 %
02.06.2023 19:00 20,1 C 24,4 C 16,7 C 58 % 1020,1 hPa 0,0 l/m 2 min 0 min 335 W/m 19,3 km/h (3 Bft) 97,87 %
02.06.2023 19:02 20,1 C 24,4 C 16,7 C 58 % 1020,1 hPa 0,0 l/m 2 min 0 min 326 W/m 12,9 km/h (3 Bft) 96,30 %
02.06.2023 19:04 20,1 C 23,9 C 16,7 C 57 % 1020,1 hPa 0,0 l/m 2 min 0 min 323 W/m 19,3 km/h (3 Bft) 97,87 %
02.06.2023 19:06 20,1 C 23,9 C 16,1 C 57 % 1020,0 hPa 0,0 l/m 2 min 0 min 320 W/m 19,3 km/h (3 Bft) 98,31 %
02.06.2023 19:08 20,1 C 23,9 C 16,1 C 58 % 1020,0 hPa 0,0 l/m 2 min 0 min 317 W/m 19,3 km/h (3 Bft) 97,14 %
02.06.2023 19:10 20,1 C 24,4 C 16,1 C 58 % 1020,0 hPa 0,0 l/m 2 min 0 min 311 W/m 16,1 km/h (3 Bft) 97,87 %
02.06.2023 19:12 20,1 C 23,9 C 15,6 C 58 % 1020,1 hPa 0,0 l/m 2 min 0 min 304 W/m 9,7 km/h (2 Bft) 100,00 %
02.06.2023 19:14 20,1 C 23,9 C 15,6 C 58 % 1020,0 hPa 0,0 l/m 2 min 0 min 296 W/m 12,9 km/h (3 Bft) 97,87 %
02.06.2023 19:16 20,0 C 23,9 C 15,6 C 57 % 1020,1 hPa 0,0 l/m 2 min 0 min 287 W/m 16,1 km/h (3 Bft) 100,00 %
02.06.2023 19:18 19,9 C 23,9 C 15,6 C 58 % 1020,0 hPa 0,0 l/m 2 min 0 min 280 W/m 12,9 km/h (3 Bft) 100,00 %
02.06.2023 19:20 19,8 C 23,3 C 15,0 C 57 % 1020,0 hPa 0,0 l/m 2 min 0 min 273 W/m 12,9 km/h (3 Bft) 100,00 %
02.06.2023 19:22 19,7 C 22,8 C 15,0 C 57 % 1020,1 hPa 0,0 l/m 2 min 0 min 258 W/m 3,2 km/h (1 Bft) 97,50 %
02.06.2023 19:24 19,6 C 22,8 C 15,0 C 58 % 1020,1 hPa 0,0 l/m 2 min 0 min 248 W/m 16,1 km/h (3 Bft) 85,71 %
02.06.2023 19:29 19,4 C 21,7 C 15,0 C 59 % 1020,1 hPa 0,0 l/m 5 min 0 min 239 W/m 12,9 km/h (3 Bft) 100,00 %
02.06.2023 19:30 19,3 C 20,6 C 15,0 C 60 % 1020,1 hPa 0,0 l/m 0 min 0 min 56 W/m 9,7 km/h (2 Bft) 100,00 %
02.06.2023 19:32 19,3 C 20,0 C 15,0 C 59 % 1020,1 hPa 0,0 l/m 0 min 0 min 89 W/m 12,9 km/h (3 Bft) 97,92 %
02.06.2023 19:34 19,2 C 19,4 C 15,0 C 59 % 1020,0 hPa 0,0 l/m 2 min 0 min 221 W/m 12,9 km/h (3 Bft) 97,87 %
02.06.2023 19:36 19,1 C 18,9 C 14,4 C 60 % 1020,1 hPa 0,0 l/m 0 min 0 min 145 W/m 9,7 km/h (2 Bft) 93,62 %
02.06.2023 19:38 19,0 C 18,9 C 14,4 C 59 % 1020,1 hPa 0,0 l/m 0 min 0 min 56 W/m 12,9 km/h (3 Bft) 97,87 %
02.06.2023 19:40 18,9 C 18,3 C 14,4 C 59 % 1020,1 hPa 0,0 l/m 0 min 0 min 54 W/m 9,7 km/h (2 Bft) 97,87 %
02.06.2023 19:42 18,8 C 18,3 C 14,4 C 59 % 1020,1 hPa 0,0 l/m 0 min 0 min 70 W/m 12,9 km/h (3 Bft) 97,83 %
02.06.2023 19:44 18,8 C 18,3 C 14,4 C 59 % 1020,1 hPa 0,0 l/m 0 min 0 min 58 W/m 9,7 km/h (2 Bft) 97,87 %
02.06.2023 19:46 18,7 C 18,3 C 14,4 C 59 % 1020,1 hPa 0,0 l/m 0 min 0 min 107 W/m 9,7 km/h (2 Bft) 97,87 %
02.06.2023 19:48 18,6 C 18,3 C 14,4 C 60 % 1020,2 hPa 0,0 l/m 2 min 0 min 179 W/m 9,7 km/h (2 Bft) 97,87 %
02.06.2023 19:50 18,6 C 18,3 C 14,4 C 60 % 1020,2 hPa 0,0 l/m 2 min 0 min 139 W/m 6,4 km/h (2 Bft) 97,87 %
02.06.2023 19:52 18,6 C 18,3 C 14,4 C 61 % 1020,2 hPa 0,0 l/m 0 min 0 min 78 W/m 16,1 km/h (3 Bft) 95,74 %
02.06.2023 19:54 18,6 C 18,3 C 14,4 C 60 % 1020,3 hPa 0,0 l/m 0 min 0 min 59 W/m 16,1 km/h (3 Bft) 97,87 %
02.06.2023 19:56 18,5 C 18,3 C 14,4 C 60 % 1020,3 hPa 0,0 l/m 0 min 0 min 54 W/m 12,9 km/h (3 Bft) 97,83 %
02.06.2023 19:58 18,4 C 18,3 C 14,4 C 61 % 1020,3 hPa 0,0 l/m 0 min 0 min 54 W/m 9,7 km/h (2 Bft) 97,87 %
02.06.2023 20:00 18,4 C 18,3 C 14,4 C 61 % 1020,3 hPa 0,0 l/m 0 min 0 min 53 W/m 9,7 km/h (2 Bft) 95,74 %
02.06.2023 20:02 18,4 C 18,3 C 13,9 C 61 % 1020,3 hPa 0,0 l/m 0 min 0 min 51 W/m 9,7 km/h (2 Bft) 97,87 %
02.06.2023 20:04 18,3 C 18,3 C 14,4 C 61 % 1020,3 hPa 0,0 l/m 0 min 0 min 51 W/m 9,7 km/h (2 Bft) 100,00 %
02.06.2023 20:06 18,3 C 18,3 C 13,9 C 62 % 1020,3 hPa 0,0 l/m 0 min 0 min 49 W/m 9,7 km/h (2 Bft) 98,28 %
02.06.2023 20:08 18,3 C 17,8 C 13,9 C 62 % 1020,2 hPa 0,0 l/m 0 min 0 min 47 W/m 9,7 km/h (2 Bft) 100,00 %
02.06.2023 20:10 18,3 C 17,8 C 13,9 C 62 % 1020,1 hPa 0,0 l/m 0 min 0 min 47 W/m 9,7 km/h (2 Bft) 95,65 %
02.06.2023 20:12 18,3 C 17,8 C 13,9 C 62 % 1020,1 hPa 0,0 l/m 0 min 0 min 46 W/m 9,7 km/h (2 Bft) 97,87 %
02.06.2023 20:14 18,2 C 17,8 C 13,9 C 62 % 1020,1 hPa 0,0 l/m 0 min 0 min 44 W/m 9,7 km/h (2 Bft) 100,00 %
02.06.2023 20:16 18,2 C 17,8 C 13,9 C 62 % 1020,2 hPa 0,0 l/m 0 min 0 min 43 W/m 6,4 km/h (2 Bft) 100,00 %
02.06.2023 20:18 18,2 C 17,8 C 13,9 C 62 % 1020,1 hPa 0,0 l/m 0 min 0 min 42 W/m 16,1 km/h (3 Bft) 100,00 %
02.06.2023 20:20 18,2 C 17,8 C 13,9 C 62 % 1020,1 hPa 0,0 l/m 0 min 0 min 42 W/m 12,9 km/h (3 Bft) 100,00 %
02.06.2023 20:22 18,1 C 17,8 C 13,9 C 62 % 1020,1 hPa 0,0 l/m 0 min 0 min 41 W/m 6,4 km/h (2 Bft) 97,83 %
02.06.2023 20:24 18,1 C 17,8 C 13,9 C 62 % 1020,1 hPa 0,0 l/m 0 min 0 min 40 W/m 12,9 km/h (3 Bft) 97,87 %
02.06.2023 20:26 18,1 C 17,8 C 13,9 C 62 % 1020,1 hPa 0,0 l/m 0 min 0 min 39 W/m 9,7 km/h (2 Bft) 100,00 %
02.06.2023 20:28 18,1 C 17,8 C 13,9 C 62 % 1020,1 hPa 0,0 l/m 0 min 0 min 38 W/m 6,4 km/h (2 Bft) 100,00 %
02.06.2023 20:30 18,0 C 17,2 C 13,9 C 62 % 1020,1 hPa 0,0 l/m 0 min 0 min 37 W/m 9,7 km/h (2 Bft) 100,00 %
02.06.2023 20:32 18,0 C 17,2 C 13,9 C 62 % 1020,1 hPa 0,0 l/m 0 min 0 min 36 W/m 6,4 km/h (2 Bft) 97,87 %
02.06.2023 20:34 17,9 C 17,2 C 13,3 C 62 % 1020,1 hPa 0,0 l/m 0 min 0 min 35 W/m 9,7 km/h (2 Bft) 97,87 %
02.06.2023 20:36 17,9 C 17,2 C 13,3 C 62 % 1020,1 hPa 0,0 l/m 0 min 0 min 33 W/m 6,4 km/h (2 Bft) 95,65 %
02.06.2023 20:38 17,8 C 17,2 C 13,3 C 63 % 1020,0 hPa 0,0 l/m 0 min 0 min 33 W/m 9,7 km/h (2 Bft) 95,74 %
02.06.2023 20:40 17,8 C 17,2 C 13,3 C 63 % 1020,1 hPa 0,0 l/m 0 min 0 min 32 W/m 16,1 km/h (3 Bft) 95,74 %
02.06.2023 20:42 17,8 C 17,2 C 13,3 C 63 % 1020,1 hPa 0,0 l/m 0 min 0 min 30 W/m 3,2 km/h (1 Bft) 97,87 %
02.06.2023 20:44 17,8 C 17,2 C 13,3 C 63 % 1020,1 hPa 0,0 l/m 0 min 0 min 29 W/m 6,4 km/h (2 Bft) 97,87 %
02.06.2023 20:46 17,7 C 17,2 C 13,3 C 63 % 1020,1 hPa 0,0 l/m 0 min 0 min 28 W/m 9,7 km/h (2 Bft) 93,62 %
02.06.2023 20:48 17,7 C 17,2 C 13,3 C 63 % 1020,1 hPa 0,0 l/m 0 min 0 min 27 W/m 3,2 km/h (1 Bft) 93,62 %
02.06.2023 20:50 17,6 C 16,7 C 13,3 C 64 % 1020,1 hPa 0,0 l/m 0 min 0 min 26 W/m 6,4 km/h (2 Bft) 97,83 %
02.06.2023 20:52 17,6 C 16,7 C 13,3 C 64 % 1020,1 hPa 0,0 l/m 0 min 0 min 26 W/m 9,7 km/h (2 Bft) 95,74 %
02.06.2023 20:54 17,6 C 16,7 C 13,3 C 63 % 1020,1 hPa 0,0 l/m 0 min 0 min 25 W/m 6,4 km/h (2 Bft) 95,74 %
02.06.2023 20:56 17,5 C 16,7 C 13,3 C 64 % 1020,1 hPa 0,0 l/m 0 min 0 min 24 W/m 6,4 km/h (2 Bft) 95,74 %
02.06.2023 20:58 17,4 C 16,7 C 12,8 C 64 % 1020,1 hPa 0,0 l/m 0 min 0 min 23 W/m 6,4 km/h (2 Bft) 97,87 %
02.06.2023 21:00 17,4 C 16,7 C 12,8 C 64 % 1020,2 hPa 0,0 l/m 0 min 0 min 22 W/m 9,7 km/h (2 Bft) 95,74 %
02.06.2023 21:02 17,4 C 16,7 C 12,8 C 65 % 1020,2 hPa 0,0 l/m 0 min 0 min 21 W/m 6,4 km/h (2 Bft) 95,65 %
02.06.2023 21:04 17,3 C 16,7 C 12,8 C 64 % 1020,2 hPa 0,0 l/m 0 min 0 min 20 W/m 9,7 km/h (2 Bft) 93,62 %
02.06.2023 21:06 17,3 C 16,7 C 12,8 C 64 % 1020,1 hPa 0,0 l/m 0 min 0 min 19 W/m 6,4 km/h (2 Bft) 95,08 %
02.06.2023 21:08 17,2 C 16,7 C 12,8 C 64 % 1020,2 hPa 0,0 l/m 0 min 0 min 19 W/m 6,4 km/h (2 Bft) 97,14 %
02.06.2023 21:10 17,2 C 16,1 C 12,8 C 65 % 1020,2 hPa 0,0 l/m 0 min 0 min 18 W/m 6,4 km/h (2 Bft) 97,87 %
02.06.2023 21:12 17,2 C 16,1 C 12,8 C 65 % 1020,2 hPa 0,0 l/m 0 min 0 min 16 W/m 6,4 km/h (2 Bft) 93,62 %
02.06.2023 21:14 17,1 C 16,1 C 12,8 C 65 % 1020,2 hPa 0,0 l/m 0 min 0 min 15 W/m 3,2 km/h (1 Bft) 95,74 %
02.06.2023 21:16 17,1 C 16,1 C 12,8 C 65 % 1020,2 hPa 0,0 l/m 0 min 0 min 14 W/m 6,4 km/h (2 Bft) 95,65 %
02.06.2023 21:18 17,0 C 16,1 C 12,8 C 66 % 1020,2 hPa 0,0 l/m 0 min 0 min 14 W/m 3,2 km/h (1 Bft) 95,74 %
02.06.2023 21:20 16,9 C 16,1 C 12,8 C 66 % 1020,2 hPa 0,0 l/m 0 min 0 min 12 W/m 6,4 km/h (2 Bft) 91,49 %
02.06.2023 21:22 16,9 C 16,1 C 12,2 C 65 % 1020,3 hPa 0,0 l/m 0 min 0 min 12 W/m 3,2 km/h (1 Bft) 91,49 %
02.06.2023 21:24 16,9 C 15,6 C 12,2 C 66 % 1020,2 hPa 0,0 l/m 0 min 0 min 11 W/m 3,2 km/h (1 Bft) 93,62 %
02.06.2023 21:26 16,8 C 15,6 C 12,2 C 66 % 1020,2 hPa 0,0 l/m 0 min 0 min 10 W/m 3,2 km/h (1 Bft) 95,74 %
02.06.2023 21:28 16,8 C 15,6 C 12,2 C 66 % 1020,2 hPa 0,0 l/m 0 min 0 min 9 W/m 6,4 km/h (2 Bft) 95,65 %
02.06.2023 21:30 16,8 C 15,6 C 12,2 C 66 % 1020,2 hPa 0,0 l/m 0 min 0 min 9 W/m 6,4 km/h (2 Bft) 63,83 %
02.06.2023 21:32 16,7 C 15,6 C 12,2 C 66 % 1020,2 hPa 0,0 l/m 0 min 0 min 7 W/m 3,2 km/h (1 Bft) 84,78 %
02.06.2023 21:34 16,6 C 15,6 C 12,2 C 66 % 1020,1 hPa 0,0 l/m 0 min 0 min 7 W/m 3,2 km/h (1 Bft) 93,62 %
02.06.2023 21:36 16,6 C 15,6 C 12,2 C 67 % 1020,2 hPa 0,0 l/m 0 min 0 min 6 W/m 3,2 km/h (1 Bft) 93,62 %
02.06.2023 21:38 16,5 C 15,6 C 12,2 C 67 % 1020,2 hPa 0,0 l/m 0 min 0 min 5 W/m 3,2 km/h (1 Bft) 93,62 %
02.06.2023 21:40 16,5 C 15,6 C 11,7 C 68 % 1020,2 hPa 0,0 l/m 0 min 0 min 5 W/m 3,2 km/h (1 Bft) 95,74 %
02.06.2023 21:42 16,4 C 15,0 C 11,7 C 68 % 1020,2 hPa 0,0 l/m 0 min 0 min 2 W/m 3,2 km/h (1 Bft) 95,65 %
02.06.2023 21:44 16,4 C 15,0 C 11,7 C 68 % 1020,3 hPa 0,0 l/m 0 min 0 min 0 W/m 3,2 km/h (1 Bft) 100,00 %
02.06.2023 21:46 16,3 C 15,0 C 11,7 C 68 % 1020,3 hPa 0,0 l/m 0 min 0 min 0 W/m 3,2 km/h (1 Bft) 97,87 %
02.06.2023 21:48 16,3 C 15,0 C 11,7 C 68 % 1020,3 hPa 0,0 l/m 0 min 0 min 0 W/m 3,2 km/h (1 Bft) 97,87 %
02.06.2023 21:50 16,2 C 15,0 C 11,7 C 68 % 1020,3 hPa 0,0 l/m 0 min 0 min 0 W/m 0,0 km/h (0 Bft) 100,00 %
02.06.2023 21:52 16,2 C 15,0 C 11,7 C 69 % 1020,3 hPa 0,0 l/m 0 min 0 min 0 W/m 3,2 km/h (1 Bft) 100,00 %
02.06.2023 21:54 16,2 C 15,0 C 11,7 C 68 % 1020,3 hPa 0,0 l/m 0 min 0 min 0 W/m 3,2 km/h (1 Bft) 100,00 %
02.06.2023 21:56 16,1 C 15,0 C 11,7 C 69 % 1020,3 hPa 0,0 l/m 0 min 0 min 0 W/m 3,2 km/h (1 Bft) 100,00 %
02.06.2023 21:58 16,1 C 15,0 C 11,7 C 69 % 1020,3 hPa 0,0 l/m 0 min 0 min 0 W/m 3,2 km/h (1 Bft) 97,87 %
02.06.2023 22:00 16,1 C 14,4 C 11,7 C 69 % 1020,3 hPa 0,0 l/m 0 min 0 min 0 W/m 3,2 km/h (1 Bft) 100,00 %
02.06.2023 22:02 16,0 C 14,4 C 11,1 C 69 % 1020,3 hPa 0,0 l/m 0 min 0 min 0 W/m 3,2 km/h (1 Bft) 95,74 %
02.06.2023 22:04 15,9 C 14,4 C 11,1 C 70 % 1020,3 hPa 0,0 l/m 0 min 0 min 0 W/m 3,2 km/h (1 Bft) 100,00 %
02.06.2023 22:06 15,9 C 14,4 C 11,1 C 70 % 1020,3 hPa 0,0 l/m 0 min 0 min 0 W/m 3,2 km/h (1 Bft) 98,31 %
02.06.2023 22:08 15,8 C 14,4 C 11,1 C 70 % 1020,3 hPa 0,0 l/m 0 min 0 min 0 W/m 0,0 km/h (0 Bft) 100,00 %
02.06.2023 22:10 15,8 C 14,4 C 11,1 C 70 % 1020,3 hPa 0,0 l/m 0 min 0 min 0 W/m 0,0 km/h (0 Bft) 100,00 %
02.06.2023 22:12 15,8 C 14,4 C 11,1 C 70 % 1020,4 hPa 0,0 l/m 0 min 0 min 0 W/m 0,0 km/h (0 Bft) 100,00 %
02.06.2023 22:14 15,7 C 14,4 C 11,1 C 71 % 1020,3 hPa 0,0 l/m 0 min 0 min 0 W/m 0,0 km/h (0 Bft) 97,87 %
02.06.2023 22:16 15,7 C 14,4 C 11,1 C 71 % 1020,4 hPa 0,0 l/m 0 min 0 min 0 W/m 0,0 km/h (0 Bft) 100,00 %
02.06.2023 22:18 15,6 C 14,4 C 11,1 C 71 % 1020,4 hPa 0,0 l/m 0 min 0 min 0 W/m 3,2 km/h (1 Bft) 100,00 %
02.06.2023 22:20 15,6 C 14,4 C 11,1 C 70 % 1020,4 hPa 0,0 l/m 0 min 0 min 0 W/m 3,2 km/h (1 Bft) 100,00 %
02.06.2023 22:22 15,5 C 14,4 C 11,1 C 70 % 1020,4 hPa 0,0 l/m 0 min 0 min 0 W/m 3,2 km/h (1 Bft) 97,87 %
02.06.2023 22:24 15,4 C 14,4 C 11,1 C 70 % 1020,4 hPa 0,0 l/m 0 min 0 min 0 W/m 3,2 km/h (1 Bft) 100,00 %
02.06.2023 22:26 15,4 C 14,4 C 11,1 C 71 % 1020,4 hPa 0,0 l/m 0 min 0 min 0 W/m 3,2 km/h (1 Bft) 100,00 %
02.06.2023 22:28 15,4 C 14,4 C 11,1 C 71 % 1020,5 hPa 0,0 l/m 0 min 0 min 0 W/m 0,0 km/h (0 Bft) 100,00 %
02.06.2023 22:30 15,4 C 13,9 C 10,6 C 72 % 1020,5 hPa 0,0 l/m 0 min 0 min 0 W/m 3,2 km/h (1 Bft) 100,00 %
02.06.2023 22:32 15,3 C 13,9 C 10,6 C 72 % 1020,5 hPa 0,0 l/m 0 min 0 min 0 W/m 0,0 km/h (0 Bft) 100,00 %
02.06.2023 22:34 15,3 C 13,9 C 10,6 C 72 % 1020,5 hPa 0,0 l/m 0 min 0 min 0 W/m 0,0 km/h (0 Bft) 97,87 %
02.06.2023 22:36 15,3 C 13,9 C 10,6 C 72 % 1020,5 hPa 0,0 l/m 0 min 0 min 0 W/m 0,0 km/h (0 Bft) 100,00 %
02.06.2023 22:38 15,2 C 13,9 C 10,6 C 72 % 1020,5 hPa 0,0 l/m 0 min 0 min 0 W/m 0,0 km/h (0 Bft) 100,00 %
02.06.2023 22:40 15,2 C 13,9 C 10,6 C 72 % 1020,6 hPa 0,0 l/m 0 min 0 min 0 W/m 0,0 km/h (0 Bft) 97,87 %
02.06.2023 22:42 15,2 C 13,9 C 10,6 C 73 % 1020,6 hPa 0,0 l/m 0 min 0 min 0 W/m 0,0 km/h (0 Bft) 97,83 %
02.06.2023 22:44 15,2 C 13,9 C 10,6 C 73 % 1020,6 hPa 0,0 l/m 0 min 0 min 0 W/m 0,0 km/h (0 Bft) 100,00 %
02.06.2023 22:46 15,1 C 13,9 C 10,6 C 73 % 1020,5 hPa 0,0 l/m 0 min 0 min 0 W/m 0,0 km/h (0 Bft) 97,87 %
02.06.2023 22:48 15,1 C 13,3 C 10,6 C 73 % 1020,5 hPa 0,0 l/m 0 min 0 min 0 W/m 0,0 km/h (0 Bft) 97,87 %
02.06.2023 22:50 15,0 C 13,3 C 10,6 C 73 % 1020,5 hPa 0,0 l/m 0 min 0 min 0 W/m 0,0 km/h (0 Bft) 97,87 %
02.06.2023 22:52 14,9 C 13,3 C 10,6 C 74 % 1020,6 hPa 0,0 l/m 0 min 0 min 0 W/m 3,2 km/h (1 Bft) 97,87 %
02.06.2023 22:54 14,9 C 13,3 C 10,0 C 74 % 1020,5 hPa 0,0 l/m 0 min 0 min 0 W/m 0,0 km/h (0 Bft) 100,00 %
02.06.2023 22:56 14,9 C 13,3 C 10,0 C 74 % 1020,6 hPa 0,0 l/m 0 min 0 min 0 W/m 0,0 km/h (0 Bft) 100,00 %
02.06.2023 22:58 14,8 C 13,3 C 10,0 C 74 % 1020,6 hPa 0,0 l/m 0 min 0 min 0 W/m 3,2 km/h (1 Bft) 97,87 %
02.06.2023 23:00 14,8 C 13,3 C 10,0 C 75 % 1020,6 hPa 0,0 l/m 0 min 0 min 0 W/m 0,0 km/h (0 Bft) 97,87 %
02.06.2023 23:02 14,7 C 13,3 C 10,0 C 74 % 1020,5 hPa 0,0 l/m 0 min 0 min 0 W/m 0,0 km/h (0 Bft) 95,74 %
02.06.2023 23:04 14,7 C 13,3 C 10,0 C 74 % 1020,5 hPa 0,0 l/m 0 min 0 min 0 W/m 3,2 km/h (1 Bft) 95,83 %
02.06.2023 23:06 14,6 C 13,3 C 10,0 C 74 % 1020,6 hPa 0,0 l/m 0 min 0 min 0 W/m 3,2 km/h (1 Bft) 94,83 %
02.06.2023 23:08 14,6 C 13,3 C 10,0 C 75 % 1020,5 hPa 0,0 l/m 0 min 0 min 0 W/m 0,0 km/h (0 Bft) 97,22 %
02.06.2023 23:10 14,6 C 13,3 C 10,0 C 75 % 1020,6 hPa 0,0 l/m 0 min 0 min 0 W/m 0,0 km/h (0 Bft) 95,65 %
02.06.2023 23:12 14,5 C 13,3 C 10,0 C 75 % 1020,6 hPa 0,0 l/m 0 min 0 min 0 W/m 0,0 km/h (0 Bft) 97,87 %
02.06.2023 23:14 14,5 C 13,3 C 10,6 C 74 % 1020,6 hPa 0,0 l/m 0 min 0 min 0 W/m 0,0 km/h (0 Bft) 95,74 %
02.06.2023 23:16 14,4 C 13,3 C 10,6 C 75 % 1020,6 hPa 0,0 l/m 0 min 0 min 0 W/m 3,2 km/h (1 Bft) 93,62 %
02.06.2023 23:18 14,4 C 13,3 C 10,0 C 75 % 1020,6 hPa 0,0 l/m 0 min 0 min 0 W/m 3,2 km/h (1 Bft) 95,74 %
02.06.2023 23:20 14,4 C 13,3 C 10,0 C 75 % 1020,6 hPa 0,0 l/m 0 min 0 min 0 W/m 0,0 km/h (0 Bft) 93,62 %
02.06.2023 23:22 14,3 C 13,3 C 10,0 C 75 % 1020,6 hPa 0,0 l/m 0 min 0 min 0 W/m 3,2 km/h (1 Bft) 93,48 %
02.06.2023 23:24 14,3 C 13,3 C 10,0 C 75 % 1020,6 hPa 0,0 l/m 0 min 0 min 0 W/m 0,0 km/h (0 Bft) 95,74 %
02.06.2023 23:26 14,3 C 13,3 C 10,0 C 75 % 1020,6 hPa 0,0 l/m 0 min 0 min 0 W/m 0,0 km/h (0 Bft) 93,62 %
02.06.2023 23:28 14,3 C 13,3 C 10,0 C 75 % 1020,6 hPa 0,0 l/m 0 min 0 min 0 W/m 3,2 km/h (1 Bft) 95,74 %
02.06.2023 23:30 14,3 C 13,3 C 10,0 C 75 % 1020,6 hPa 0,0 l/m 0 min 0 min 0 W/m 3,2 km/h (1 Bft) 97,87 %
02.06.2023 23:32 14,3 C 13,3 C 10,0 C 75 % 1020,6 hPa 0,0 l/m 0 min 0 min 0 W/m 3,2 km/h (1 Bft) 95,74 %
02.06.2023 23:34 14,3 C 13,3 C 10,0 C 75 % 1020,6 hPa 0,0 l/m 0 min 0 min 0 W/m 3,2 km/h (1 Bft) 96,08 %
02.06.2023 23:36 14,3 C 13,3 C 10,0 C 76 % 1020,6 hPa 0,0 l/m 0 min 0 min 0 W/m 3,2 km/h (1 Bft) 97,87 %
02.06.2023 23:38 14,3 C 13,3 C 10,0 C 76 % 1020,6 hPa 0,0 l/m 0 min 0 min 0 W/m 3,2 km/h (1 Bft) 97,87 %
02.06.2023 23:40 14,3 C 13,3 C 10,0 C 75 % 1020,6 hPa 0,0 l/m 0 min 0 min 0 W/m 3,2 km/h (1 Bft) 94,34 %
02.06.2023 23:42 14,3 C 13,3 C 10,0 C 75 % 1020,6 hPa 0,0 l/m 0 min 0 min 0 W/m 3,2 km/h (1 Bft) 94,29 %
02.06.2023 23:44 14,3 C 13,3 C 10,0 C 75 % 1020,6 hPa 0,0 l/m 0 min 0 min 0 W/m 3,2 km/h (1 Bft) 98,31 %
02.06.2023 23:46 14,3 C 13,3 C 10,0 C 75 % 1020,6 hPa 0,0 l/m 0 min 0 min 0 W/m 3,2 km/h (1 Bft) 94,29 %
02.06.2023 23:48 14,3 C 13,3 C 10,0 C 75 % 1020,7 hPa 0,0 l/m 0 min 0 min 0 W/m 3,2 km/h (1 Bft) 98,08 %
02.06.2023 23:50 14,3 C 13,3 C 10,0 C 75 % 1020,6 hPa 0,0 l/m 0 min 0 min 0 W/m 3,2 km/h (1 Bft) 97,87 %
02.06.2023 23:52 14,3 C 13,3 C 10,0 C 76 % 1020,6 hPa 0,0 l/m 0 min 0 min 0 W/m 3,2 km/h (1 Bft) 97,87 %
02.06.2023 23:54 14,3 C 13,3 C 10,0 C 76 % 1020,6 hPa 0,0 l/m 0 min 0 min 0 W/m 0,0 km/h (0 Bft) 97,87 %
02.06.2023 23:56 14,3 C 13,3 C 10,0 C 76 % 1020,6 hPa 0,0 l/m 0 min 0 min 0 W/m 0,0 km/h (0 Bft) 100,00 %
02.06.2023 23:58 14,2 C 13,3 C 10,0 C 76 % 1020,6 hPa 0,0 l/m 0 min 0 min 0 W/m 3,2 km/h (1 Bft) 95,74 %
_ Min-Zeit 06:04 05:58 04:34 16:50 19:06 - - - - 21:50 21:30
Minimum _ 10,8 C 10,0 C 7,2 C 57 % 1020,0 hPa - - - - 0,0 km/h (0 Bft) 63,83 %
_ Max-Zeit 17:32 14:14 13:18 00:00 10:12 00:00 19:29 00:00 14:04 14:16 00:50
Maximum _ 20,8 C 27,2 C 21,1 C 80 % 1022,0 hPa 0,0 l/m 5 min 0 min 1107 W/m 29,0 km/h
O (5 Bft)
100,00 %
Durchschnitt _ 15,1 C 16,3 C 11,6 C 69 % 1021,0 hPa #0,0 l/m #7:15 h #0 min. 394 W/m 10,8 km/h (2 Bft) 97,34 %
© 2023 W. Hausmann